EA1FJG Weather Reports


Display with metric or nautical units.
time (UTC)temp
F
wind
direction
speed
MPH
gust
MPH
rain 1hr
in
rain 24hr
in
rain mn
in
humidity
%
barometer
mb
20260508013303 52 56 1.0 3.0 0.00 0.00 0.00 97 1009.1
20260508013203 52 56 1.0 3.0 0.00 0.00 0.00 97 1009.0
20260508013103 52 59 1.0 3.0 0.00 0.00 0.00 97 1009.0
20260508013003 52 57 1.0 3.0 0.00 0.00 0.00 97 1009.2
20260508012903 52 56 1.0 3.0 0.00 0.00 0.00 97 1009.2
20260508012803 51 58 1.0 3.0 0.00 0.00 0.00 97 1009.1
20260508012703 51 64 1.0 3.0 0.00 0.00 0.00 97 1009.0
20260508012603 51 63 1.0 3.0 0.00 0.00 0.00 97 1009.1
20260508012503 51 63 1.0 3.0 0.00 0.00 0.00 97 1009.1
20260508012403 51 64 1.0 3.0 0.00 0.00 0.00 97 1009.2
20260508012307 51 65 1.0 3.0 0.00 0.00 0.00 97 1009.4
20260508012204 51 73 1.0 4.0 0.00 0.00 0.00 97 1009.2
20260508012103 51 75 1.0 4.0 0.00 0.00 0.00 97 1009.2
20260508012003 51 74 1.0 4.0 0.00 0.00 0.00 97 1009.2
20260508011924 51 75 1.0 4.0 0.00 0.00 0.00 97 1009.1
20260508011803 51 76 2.0 4.0 0.00 0.00 0.00 98 1009.3
20260508011703 51 75 2.0 4.0 0.00 0.00 0.00 98 1009.3
20260508011603 52 71 1.0 4.0 0.00 0.00 0.00 98 1009.1
20260508011503 52 74 2.0 4.0 0.00 0.00 0.00 98 1009.2
20260508011425 52 74 2.0 4.0 0.00 0.00 0.00 98 1009.2
20260508011324 51 75 2.0 4.0 0.00 0.00 0.00 98 1009.3
20260508011203 51 67 2.0 3.0 0.00 0.00 0.00 98 1009.2
20260508011124 51 67 2.0 3.0 0.00 0.00 0.00 98 1009.2
20260508011003 51 65 2.0 3.0 0.00 0.00 0.00 98 1009.2
20260508010903 51 65 2.0 3.0 0.00 0.00 0.00 98 1009.2
20260508010803 51 65 2.0 3.0 0.00 0.00 0.00 98 1009.3
20260508010725 51 65 2.0 3.0 0.00 0.00 0.00 98 1009.1
20260508010603 51 63 1.0 3.0 0.00 0.00 0.00 98 1009.4
20260508010503 51 63 1.0 3.0 0.00 0.00 0.00 98 1009.4
20260508010404 51 62 1.0 3.0 0.00 0.00 0.00 98 1009.3
20260508010303 51 59 1.0 3.0 0.00 0.00 0.00 98 1009.3
20260508010224 51 58 1.0 2.0 0.00 0.00 0.00 98 1009.3
20260508010124 51 58 1.0 2.0 0.00 0.00 0.00 98 1009.2
20260508010003 51 58 1.0 2.0 0.00 0.00 0.00 98 1009.3
20260508005903 51 57 1.0 2.0 0.00 0.00 0.00 98 1009.2
20260508005803 51 58 1.0 2.0 0.00 0.00 0.00 98 1009.4
20260508005703 51 55 1.0 2.0 0.00 0.00 0.00 98 1009.4
20260508005603 51 54 1.0 2.0 0.00 0.00 0.00 98 1009.3
20260508005524 51 54 1.0 2.0 0.00 0.00 0.00 98 1009.3
20260508005402 51 49 1.0 2.0 0.00 0.00 0.00 98 1009.6
20260508005305 51 53 1.0 3.0 0.00 0.00 0.00 98 1009.5
20260508005203 51 53 1.0 3.0 0.00 0.00 0.00 98 1009.5
20260508005103 51 54 1.0 3.0 0.00 0.00 0.00 98 1009.5
20260508005024 51 54 1.0 3.0 0.00 0.00 0.00 98 1009.5
20260508004903 51 62 1.0 3.0 0.00 0.00 0.00 98 1009.6
20260508004803 51 63 1.0 3.0 0.00 0.00 0.00 98 1009.7
20260508004703 51 66 1.0 3.0 0.00 0.00 0.00 98 1009.4
20260508004603 51 69 2.0 3.0 0.00 0.00 0.00 98 1009.4
20260508004503 51 69 2.0 3.0 0.00 0.00 0.00 98 1009.5
20260508004403 51 69 2.0 3.0 0.00 0.00 0.00 98 1009.5
20260508004303 51 70 2.0 3.0 0.00 0.00 0.00 98 1009.4
20260508004203 51 72 2.0 3.0 0.00 0.00 0.00 98 1009.5
20260508004103 51 69 2.0 3.0 0.00 0.00 0.00 98 1009.6
20260508004002 51 68 2.0 3.0 0.00 0.00 0.00 98 1009.5
20260508003903 51 64 2.0 3.0 0.00 0.00 0.00 98 1009.3
20260508003803 51 63 2.0 3.0 0.00 0.00 0.00 98 1009.4
20260508003703 51 63 2.0 3.0 0.00 0.00 0.00 98 1009.4
20260508003603 51 56 1.0 3.0 0.00 0.00 0.00 98 1009.6
20260508003503 51 56 1.0 3.0 0.00 0.00 0.00 98 1009.6
20260508003403 51 58 1.0 3.0 0.00 0.00 0.00 98 1009.6
20260508003303 51 57 1.0 3.0 0.00 0.00 0.00 98 1009.8
20260508003203 51 53 1.0 2.0 0.00 0.00 0.00 98 1009.6
20260508003103 51 46 0.0 2.0 0.00 0.00 0.00 98 1009.6
20260508003003 51 51 0.0 2.0 0.00 0.00 0.00 98 1009.6
20260508002903 51 51 0.0 2.0 0.00 0.00 0.00 98 1009.6
20260508002803 51 54 0.0 2.0 0.00 0.00 0.00 98 1009.6
20260508002724 51 55 0.0 2.0 0.00 0.00 0.00 98 1009.5
20260508002603 51 53 0.0 2.0 0.00 0.00 0.00 98 1009.7
20260508002503 51 54 0.0 2.0 0.00 0.00 0.00 98 1009.6
20260508002403 51 54 0.0 2.0 0.00 0.00 0.00 98 1009.6
20260508002324 51 54 0.0 2.0 0.00 0.00 0.00 98 1009.6
20260508002203 51 54 0.0 2.0 0.00 0.00 0.00 98 1009.6
20260508002103 51 61 0.0 2.0 0.00 0.00 0.00 98 1009.6
20260508002003 51 61 0.0 2.0 0.00 0.00 0.00 98 1009.8
20260508001903 51 61 0.0 2.0 0.00 0.00 0.00 98 1009.8
20260508001824 51 59 0.0 2.0 0.00 0.00 0.00 98 1009.8
20260508001703 51 60 1.0 2.0 0.00 0.00 0.00 98 1009.8
20260508001624 51 60 1.0 2.0 0.00 0.00 0.00 98 1009.8
20260508001503 51 61 1.0 2.0 0.00 0.00 0.00 98 1009.8
20260508001403 51 59 1.0 2.0 0.00 0.00 0.00 98 1009.7
20260508001303 51 60 1.0 2.0 0.00 0.00 0.00 98 1009.8
20260508001203 51 60 1.0 2.0 0.00 0.00 0.00 98 1009.7
20260508001103 51 60 1.0 2.0 0.00 0.00 0.00 98 1009.8
20260508001003 51 56 1.0 2.0 0.00 0.00 0.00 98 1009.8
20260508000903 51 57 1.0 2.0 0.00 0.00 0.00 98 1009.7
20260508000803 51 57 1.0 2.0 0.00 0.00 0.00 98 1009.7
20260508000703 51 58 0.0 2.0 0.00 0.00 0.00 98 1009.8
20260508000603 51 54 0.0 2.0 0.00 0.00 0.00 98 1009.8
20260508000503 51 48 0.0 1.0 0.00 0.00 0.00 98 1009.7
20260508000404 51 59 0.0 2.0 0.00 0.00 0.00 98 1009.7
20260508000305 51 56 0.0 2.0 0.00 0.00 0.00 98 1009.8
20260508000204 51 54 1.0 2.0 0.00 0.00 0.00 98 1009.7
20260508000003 51 52 1.0 2.0 0.00 0.00 0.00 98 1009.6
20260507235903 51 57 1.0 2.0 0.00 0.00 0.00 98 1009.7
20260507235803 51 58 1.0 2.0 0.00 0.00 0.00 98 1009.9
20260507235703 51 58 1.0 2.0 0.00 0.00 0.00 98 1009.9
20260507235603 51 58 1.0 2.0 0.00 0.00 0.00 98 1009.8
20260507235503 51 61 1.0 2.0 0.00 0.00 0.00 98 1009.8
20260507235403 52 61 1.0 2.0 0.00 0.00 0.00 98 1009.9
20260507235306 52 60 1.0 2.0 0.00 0.00 0.00 98 1009.8
20260507235203 52 58 1.0 3.0 0.00 0.00 0.00 98 1009.8
20260507235103 52 59 1.0 3.0 0.00 0.00 0.00 98 1009.8
20260507235024 52 59 1.0 3.0 0.00 0.00 0.00 98 1010.0
20260507234903 52 60 1.0 3.0 0.00 0.00 0.00 98 1009.8
20260507234803 52 57 1.0 3.0 0.00 0.00 0.00 98 1009.9
20260507234703 52 57 1.0 3.0 0.00 0.00 0.00 98 1009.8
20260507234603 52 57 1.0 3.0 0.00 0.00 0.00 98 1010.0
20260507234503 52 51 1.0 3.0 0.00 0.00 0.00 98 1009.9
20260507234403 52 51 1.0 3.0 0.00 0.00 0.00 98 1009.9
20260507234303 52 51 1.0 3.0 0.00 0.00 0.00 98 1009.9
20260507234224 52 53 1.0 3.0 0.00 0.00 0.00 98 1010.1
20260507234103 52 55 1.0 3.0 0.00 0.00 0.00 98 1010.0
20260507234003 52 56 1.0 3.0 0.00 0.00 0.00 98 1009.8
20260507233924 52 58 1.0 3.0 0.00 0.00 0.00 98 1009.8
20260507233803 52 57 1.0 3.0 0.00 0.00 0.00 98 1009.8
20260507233703 52 57 1.0 3.0 0.00 0.00 0.00 98 1010.0
20260507233603 52 57 1.0 3.0 0.00 0.00 0.00 98 1009.8
20260507233503 52 56 1.0 3.0 0.00 0.00 0.00 98 1009.9
20260507233403 52 58 1.0 3.0 0.00 0.00 0.00 98 1010.0
20260507233303 52 66 1.0 4.0 0.00 0.00 0.00 98 1010.0
20260507233203 52 66 1.0 4.0 0.00 0.00 0.00 98 1009.9
20260507233103 52 69 1.0 4.0 0.00 0.00 0.00 98 1010.1
20260507233003 52 68 1.0 4.0 0.00 0.00 0.00 98 1010.0
20260507232903 52 75 2.0 4.0 0.00 0.00 0.00 98 1009.9
20260507232803 52 75 2.0 4.0 0.00 0.00 0.00 98 1010.0
20260507232724 52 75 2.0 4.0 0.00 0.00 0.00 98 1010.0
20260507232625 52 74 2.0 4.0 0.00 0.00 0.00 98 1009.9
20260507232503 52 72 2.0 4.0 0.00 0.00 0.00 98 1009.9
20260507232403 52 72 2.0 4.0 0.00 0.00 0.00 98 1010.0
20260507232306 52 75 2.0 4.0 0.00 0.00 0.00 98 1009.9
20260507232203 52 71 2.0 4.0 0.00 0.00 0.00 98 1010.1
20260507232103 52 71 2.0 4.0 0.00 0.00 0.00 98 1010.0
20260507232003 52 71 2.0 4.0 0.00 0.00 0.00 98 1010.0
20260507231903 52 72 2.0 4.0 0.00 0.00 0.00 98 1010.0
20260507231803 52 70 2.0 3.0 0.00 0.00 0.00 98 1010.1
20260507231703 52 69 2.0 3.0 0.00 0.00 0.00 98 1010.1
20260507231603 52 70 2.0 3.0 0.00 0.00 0.00 98 1010.1
20260507231503 52 71 2.0 3.0 0.00 0.00 0.00 98 1010.0
20260507231403 52 70 2.0 3.0 0.00 0.00 0.00 98 1010.4
20260507231303 52 70 2.0 3.0 0.00 0.00 0.00 98 1010.4
20260507231203 52 66 2.0 3.0 0.00 0.00 0.00 98 1010.0
20260507231124 52 65 2.0 3.0 0.00 0.00 0.00 98 1010.1
20260507231003 52 61 1.0 3.0 0.00 0.00 0.00 98 1010.1
20260507230903 52 59 1.0 3.0 0.00 0.00 0.00 98 1010.4
20260507230824 52 57 1.0 3.0 0.00 0.00 0.00 98 1010.1
20260507230724 52 46 1.0 2.0 0.00 0.00 0.00 98 1010.1
20260507230603 52 45 1.0 2.0 0.00 0.00 0.00 97 1010.1
20260507230503 52 45 1.0 2.0 0.00 0.00 0.00 98 1010.2
20260507230403 52 45 1.0 2.0 0.00 0.00 0.00 98 1010.0
20260507230324 52 45 1.0 2.0 0.00 0.00 0.00 98 1010.0
20260507230203 52 43 0.0 1.0 0.00 0.00 0.00 98 1010.2
20260507230003 51 42 0.0 1.0 0.00 0.00 0.00 98 1010.0
20260507225903 51 42 0.0 1.0 0.00 0.00 0.00 97 1010.2
20260507225803 51 42 0.0 1.0 0.00 0.00 0.00 97 1010.2
20260507225703 51 0 0.0 0.0 0.00 0.00 0.00 97 1010.2
20260507225603 51 0 0.0 0.0 0.00 0.00 0.00 97 1010.2
20260507225524 51 0 0.0 0.0 0.00 0.00 0.00 97 1010.2
20260507225403 51 0 0.0 0.0 0.00 0.00 0.00 97 1010.4
20260507225306 52 0 0.0 0.0 0.00 0.00 0.00 97 1010.0
20260507225203 52 0 0.0 0.0 0.00 0.00 0.00 97 1010.1
20260507225103 52 0 0.0 0.0 0.00 0.00 0.00 97 1010.2
20260507225003 52 0 0.0 0.0 0.00 0.00 0.00 97 1010.1
20260507224903 52 0 0.0 0.0 0.00 0.00 0.00 97 1010.1
20260507224803 52 0 0.0 0.0 0.00 0.00 0.00 97 1010.2
20260507224703 52 0 0.0 0.0 0.00 0.00 0.00 97 1010.4
20260507224624 52 0 0.0 0.0 0.00 0.00 0.00 97 1010.4
20260507224503 52 0 0.0 0.0 0.00 0.00 0.00 97 1010.5
20260507224403 51 0 0.0 0.0 0.00 0.00 0.00 97 1010.4
20260507224303 51 0 0.0 0.0 0.00 0.00 0.00 97 1010.2
20260507224203 51 0 0.0 0.0 0.00 0.00 0.00 97 1010.4
20260507224124 51 0 0.0 0.0 0.00 0.00 0.00 97 1010.4
20260507224003 51 0 0.0 0.0 0.00 0.00 0.00 97 1010.4
20260507223903 51 0 0.0 0.0 0.00 0.00 0.00 97 1010.4
20260507223803 52 0 0.0 0.0 0.00 0.00 0.00 97 1010.4
20260507223703 52 0 0.0 0.0 0.00 0.00 0.00 97 1010.5
20260507223603 52 0 0.0 0.0 0.00 0.00 0.00 97 1010.5
20260507223524 52 0 0.0 0.0 0.00 0.00 0.00 97 1010.6
20260507223403 52 0 0.0 0.0 0.00 0.00 0.00 97 1010.4
20260507223303 52 0 0.0 0.0 0.00 0.00 0.00 97 1010.4
20260507223203 52 0 0.0 0.0 0.00 0.00 0.00 97 1010.5
20260507223103 52 0 0.0 0.0 0.00 0.00 0.00 97 1010.4
20260507223003 52 0 0.0 0.0 0.00 0.00 0.00 97 1010.4
20260507222903 52 0 0.0 0.0 0.00 0.00 0.00 97 1010.5
20260507222803 52 0 0.0 0.0 0.00 0.00 0.00 97 1010.5
20260507222703 52 0 0.0 0.0 0.00 0.00 0.00 97 1010.6
20260507222603 52 0 0.0 0.0 0.00 0.00 0.00 97 1010.8
20260507222503 52 0 0.0 0.0 0.00 0.00 0.00 97 1010.7
20260507222403 52 0 0.0 0.0 0.00 0.00 0.00 97 1010.6
20260507222324 52 0 0.0 0.0 0.00 0.00 0.00 97 1010.7
20260507222203 52 0 0.0 0.0 0.00 0.00 0.00 97 1010.7
20260507222103 52 0 0.0 0.0 0.00 0.00 0.00 97 1010.5
20260507222003 52 37 0.0 1.0 0.00 0.00 0.00 97 1010.9
20260507221903 52 37 0.0 1.0 0.00 0.00 0.00 97 1010.9
20260507221803 52 37 0.0 1.0 0.00 0.00 0.00 97 1010.7
20260507221703 52 35 0.0 1.0 0.00 0.00 0.00 97 1010.8
20260507221624 52 35 0.0 1.0 0.00 0.00 0.00 96 1010.7
20260507221503 52 35 0.0 1.0 0.00 0.00 0.00 96 1010.8
20260507221403 52 35 0.0 1.0 0.00 0.00 0.00 96 1010.8
20260507221303 52 35 0.0 1.0 0.00 0.00 0.00 96 1010.7
20260507221203 53 35 0.0 1.0 0.00 0.00 0.00 96 1011.0
20260507221103 53 35 0.0 1.0 0.00 0.00 0.00 96 1010.7
20260507221003 53 35 0.0 1.0 0.00 0.00 0.00 96 1010.6
20260507220903 52 34 0.0 1.0 0.00 0.00 0.00 96 1010.7
20260507220803 52 31 0.0 1.0 0.00 0.00 0.00 96 1010.7
20260507220703 52 0 0.0 0.0 0.00 0.00 0.00 96 1010.8
20260507220624 52 0 0.0 0.0 0.00 0.00 0.00 96 1010.8
20260507220503 52 0 0.0 0.0 0.00 0.00 0.00 96 1010.7
20260507220403 52 0 0.0 0.0 0.00 0.00 0.00 96 1010.8
20260507220324 52 0 0.0 0.0 0.00 0.00 0.00 96 1010.7
20260507220203 52 0 0.0 0.0 0.00 0.00 0.00 96 1010.6
20260507220004 53 0 0.0 0.0 0.00 0.00 0.00 96 1010.7
20260507215903 53 0 0.0 0.0 0.00 0.00 0.00 96 1010.7
20260507215803 53 0 0.0 0.0 0.00 0.00 0.00 96 1010.6
20260507215703 53 0 0.0 0.0 0.00 0.00 0.00 96 1010.7
20260507215603 53 0 0.0 0.0 0.00 0.00 0.00 96 1010.7
20260507215503 53 0 0.0 0.0 0.00 0.00 0.00 96 1010.7
20260507215403 53 0 0.0 0.0 0.00 0.00 0.00 96 1010.7
20260507215306 53 0 0.0 0.0 0.00 0.00 0.00 96 1010.7
20260507215224 53 0 0.0 0.0 0.00 0.00 0.00 96 1010.8
20260507215103 53 0 0.0 0.0 0.00 0.00 0.00 96 1010.7
20260507215024 53 0 0.0 0.0 0.00 0.00 0.00 96 1010.7
20260507214903 53 0 0.0 0.0 0.00 0.00 0.00 96 1010.9
20260507214803 53 0 0.0 0.0 0.00 0.00 0.00 96 1010.5
20260507214703 53 0 0.0 0.0 0.00 0.00 0.00 96 1010.7
20260507214603 53 0 0.0 0.0 0.00 0.00 0.00 96 1010.7
20260507214503 54 24 0.0 1.0 0.00 0.00 0.00 96 1010.6
20260507214403 54 24 0.0 1.0 0.00 0.00 0.00 96 1010.6
20260507214303 54 24 0.0 1.0 0.00 0.00 0.00 96 1010.6
20260507214203 54 24 0.0 1.0 0.00 0.00 0.00 96 1010.8
20260507214103 54 24 0.0 1.0 0.00 0.00 0.00 96 1010.8
20260507214003 54 24 0.0 1.0 0.00 0.00 0.00 96 1010.8
20260507213903 54 24 0.0 1.0 0.00 0.00 0.00 96 1010.9
20260507213803 54 24 0.0 1.0 0.00 0.00 0.00 96 1010.8
20260507213703 54 24 0.0 1.0 0.00 0.00 0.00 96 1010.8
20260507213603 54 24 0.0 1.0 0.00 0.00 0.00 96 1010.8
20260507213503 54 24 0.0 1.0 0.00 0.00 0.00 96 1010.6
20260507213403 54 0 0.0 0.0 0.00 0.00 0.00 96 1010.8
20260507213303 54 0 0.0 0.0 0.00 0.00 0.00 96 1010.7
20260507213203 54 0 0.0 0.0 0.00 0.00 0.00 95 1010.7
20260507213124 54 0 0.0 0.0 0.00 0.00 0.00 95 1010.7
20260507213024 54 0 0.0 0.0 0.00 0.00 0.00 95 1010.6
20260507212905 54 0 0.0 0.0 0.00 0.00 0.00 95 1010.7
20260507212803 54 0 0.0 0.0 0.00 0.00 0.00 95 1010.7
20260507212703 54 0 0.0 0.0 0.00 0.00 0.00 95 1010.8
20260507212603 54 0 0.0 0.0 0.00 0.00 0.00 95 1011.0
20260507212503 54 0 0.0 0.0 0.00 0.00 0.00 95 1010.7
20260507212403 54 0 0.0 0.0 0.00 0.00 0.00 95 1010.7
20260507212324 54 0 0.0 0.0 0.00 0.00 0.00 95 1010.7
20260507212224 54 0 0.0 0.0 0.00 0.00 0.00 95 1010.7
20260507212103 54 0 0.0 0.0 0.00 0.00 0.00 95 1010.6
20260507212003 54 0 0.0 0.0 0.00 0.00 0.00 95 1010.7
20260507211903 54 0 0.0 0.0 0.00 0.00 0.00 95 1010.7
20260507211803 54 0 0.0 0.0 0.00 0.00 0.00 95 1010.6
20260507211703 54 0 0.0 0.0 0.00 0.00 0.00 95 1010.6
20260507211603 54 0 0.0 0.0 0.00 0.00 0.00 95 1010.8
20260507211503 54 0 0.0 0.0 0.00 0.00 0.00 95 1010.8
20260507211403 54 0 0.0 0.0 0.00 0.00 0.00 95 1010.7
20260507211303 54 0 0.0 0.0 0.00 0.00 0.00 95 1010.7
20260507211203 54 0 0.0 0.0 0.00 0.00 0.00 95 1010.6
20260507211103 54 0 0.0 0.0 0.00 0.00 0.00 95 1010.7
20260507211003 54 0 0.0 0.0 0.00 0.00 0.00 95 1010.8
20260507210903 54 0 0.0 0.0 0.00 0.00 0.00 95 1010.6
20260507210824 54 0 0.0 0.0 0.00 0.00 0.00 95 1010.6
20260507210724 54 0 0.0 0.0 0.00 0.00 0.00 94 1010.5
20260507210603 54 0 0.0 0.0 0.00 0.00 0.00 94 1010.4
20260507210503 54 0 0.0 0.0 0.00 0.00 0.00 94 1010.6
20260507210403 54 0 0.0 0.0 0.00 0.00 0.00 94 1010.4
20260507210303 54 0 0.0 0.0 0.00 0.00 0.00 94 1010.6
20260507210203 54 0 0.0 0.0 0.00 0.00 0.00 94 1010.7
20260507210003 55 0 0.0 0.0 0.00 0.00 0.00 94 1010.5
20260507205903 55 0 0.0 0.0 0.00 0.00 0.00 94 1010.4
20260507205803 55 0 0.0 0.0 0.00 0.00 0.00 94 1010.5
20260507205703 55 24 0.0 1.0 0.00 0.00 0.00 94 1010.4
20260507205603 55 24 0.0 1.0 0.00 0.00 0.00 94 1010.4
20260507205503 55 24 0.0 1.0 0.00 0.00 0.00 94 1010.4
20260507205403 54 24 0.0 1.0 0.00 0.00 0.00 94 1010.4
20260507205306 54 24 0.0 1.0 0.00 0.00 0.00 94 1010.2
20260507205203 54 24 0.0 1.0 0.00 0.00 0.00 94 1010.2
20260507205103 55 24 0.0 1.0 0.00 0.00 0.00 94 1010.5
20260507205003 55 24 0.0 1.0 0.00 0.00 0.00 94 1010.4
20260507204903 55 24 0.0 1.0 0.00 0.00 0.00 94 1010.2
20260507204803 55 24 0.0 1.0 0.00 0.00 0.00 94 1010.2
20260507204703 55 24 0.0 1.0 0.00 0.00 0.00 94 1010.5
20260507204603 55 24 0.0 1.0 0.00 0.00 0.00 94 1010.1
20260507204524 55 0 0.0 0.0 0.00 0.00 0.00 94 1010.4
20260507204403 55 0 0.0 0.0 0.00 0.00 0.00 94 1010.5
20260507204303 55 0 0.0 0.0 0.00 0.00 0.00 94 1010.2
20260507204203 55 0 0.0 0.0 0.00 0.00 0.00 94 1010.4
20260507204103 55 0 0.0 0.0 0.00 0.00 0.00 93 1010.4
20260507204024 55 0 0.0 0.0 0.00 0.00 0.00 93 1010.4
20260507203903 55 0 0.0 0.0 0.00 0.00 0.00 93 1010.2
20260507203803 55 0 0.0 0.0 0.00 0.00 0.00 93 1010.2
20260507203703 55 0 0.0 0.0 0.00 0.00 0.00 93 1010.2
20260507203624 55 0 0.0 0.0 0.00 0.00 0.00 93 1010.2
20260507203503 55 0 0.0 0.0 0.00 0.00 0.00 93 1010.4
20260507203403 55 0 0.0 0.0 0.00 0.00 0.00 93 1010.4
20260507203324 55 0 0.0 0.0 0.00 0.00 0.00 93 1010.2
20260507203203 54 0 0.0 0.0 0.00 0.00 0.00 93 1010.2
20260507203103 54 0 0.0 0.0 0.00 0.00 0.00 93 1010.4
20260507203024 54 0 0.0 0.0 0.00 0.00 0.00 93 1010.2
20260507202924 54 0 0.0 0.0 0.00 0.00 0.00 93 1010.0
20260507202803 55 0 0.0 0.0 0.00 0.00 0.00 93 1010.1
20260507202703 55 0 0.0 0.0 0.00 0.00 0.00 93 1010.1
20260507202624 55 24 0.0 1.0 0.00 0.00 0.00 93 1010.2
20260507202503 55 24 0.0 1.0 0.00 0.00 0.00 93 1010.2
20260507202424 55 24 0.0 1.0 0.00 0.00 0.00 93 1010.2
20260507202306 55 24 0.0 1.0 0.00 0.00 0.00 92 1010.0
20260507202224 55 24 0.0 1.0 0.00 0.00 0.00 92 1010.0
20260507202124 55 24 0.0 1.0 0.00 0.00 0.00 92 1010.0
20260507202003 55 24 0.0 1.0 0.00 0.00 0.00 92 1010.0
20260507201903 55 24 0.0 1.0 0.00 0.00 0.00 92 1010.1
20260507201803 55 24 0.0 1.0 0.00 0.00 0.00 92 1010.1
20260507201724 55 24 0.0 1.0 0.00 0.00 0.00 92 1010.1
20260507201624 55 24 0.0 1.0 0.00 0.00 0.00 92 1010.2
20260507201503 55 0 0.0 0.0 0.00 0.00 0.00 92 1010.0
20260507201403 55 0 0.0 0.0 0.00 0.00 0.00 92 1009.9
20260507201324 55 0 0.0 0.0 0.00 0.00 0.00 92 1010.1
20260507201224 55 0 0.0 0.0 0.00 0.00 0.00 92 1010.0
20260507201103 55 0 0.0 0.0 0.00 0.00 0.00 92 1010.0
20260507201003 55 0 0.0 0.0 0.00 0.00 0.00 91 1009.9
20260507200903 55 0 0.0 0.0 0.00 0.00 0.00 91 1010.1
20260507200803 55 0 0.0 0.0 0.00 0.00 0.00 91 1010.2
20260507200703 55 0 0.0 0.0 0.00 0.00 0.00 91 1010.1
20260507200603 55 0 0.0 0.0 0.00 0.00 0.00 91 1010.0
20260507200503 55 0 0.0 0.0 0.00 0.00 0.00 91 1010.1
20260507200403 55 0 0.0 0.0 0.00 0.00 0.00 91 1010.0
20260507200303 55 0 0.0 0.0 0.00 0.00 0.00 91 1010.0
20260507200203 55 0 0.0 0.0 0.00 0.00 0.00 90 1010.0
20260507200003 55 0 0.0 0.0 0.00 0.00 0.00 90 1010.1
20260507195903 55 0 0.0 0.0 0.00 0.00 0.00 90 1010.1
20260507195803 56 0 0.0 0.0 0.00 0.00 0.00 90 1009.9
20260507195703 56 0 0.0 0.0 0.00 0.00 0.00 90 1010.0
20260507195603 56 0 0.0 0.0 0.00 0.00 0.00 90 1009.7
20260507195503 56 0 0.0 0.0 0.00 0.00 0.00 90 1010.0
20260507195403 56 0 0.0 0.0 0.00 0.00 0.00 90 1009.7
20260507195305 56 0 0.0 0.0 0.00 0.00 0.00 90 1009.8
20260507195203 56 0 0.0 0.0 0.00 0.00 0.00 90 1009.8
20260507195124 56 0 0.0 0.0 0.00 0.00 0.00 90 1009.9
20260507195003 56 0 0.0 0.0 0.00 0.00 0.00 90 1009.7
20260507194903 56 0 0.0 0.0 0.00 0.00 0.00 90 1009.8
20260507194824 56 0 0.0 0.0 0.00 0.00 0.00 89 1009.8
20260507194724 56 0 0.0 0.0 0.00 0.00 0.00 89 1009.8
20260507192703 58 23 0.0 1.0 0.00 0.00 0.00 88 1010.1
20260507192603 58 23 0.0 1.0 0.00 0.00 0.00 88 1010.1
20260507192503 58 23 0.0 1.0 0.00 0.00 0.00 88 1010.1
20260507192403 58 23 0.0 1.0 0.00 0.00 0.00 88 1009.8
20260507192306 58 19 0.0 2.0 0.00 0.00 0.00 88 1009.9
20260507192203 58 19 0.0 2.0 0.00 0.00 0.00 88 1009.9
20260507192103 58 19 0.0 2.0 0.00 0.00 0.00 88 1009.9
20260507192003 58 20 0.0 2.0 0.00 0.00 0.00 87 1009.9
20260507191924 58 20 0.0 2.0 0.00 0.00 0.00 87 1009.9
20260507191824 58 20 0.0 2.0 0.00 0.00 0.00 87 1009.9
20260507191703 58 23 0.0 2.0 0.00 0.00 0.00 87 1009.8
20260507191624 58 25 0.0 2.0 0.00 0.00 0.00 87 1009.7
20260507191503 58 28 0.0 2.0 0.00 0.00 0.00 87 1009.8
20260507191424 58 29 0.0 2.0 0.00 0.00 0.00 87 1009.9
20260507191303 58 30 0.0 2.0 0.00 0.00 0.00 87 1009.9
20260507191203 58 37 0.0 1.0 0.00 0.00 0.00 87 1009.8
20260507191103 58 37 0.0 1.0 0.00 0.00 0.00 87 1009.8
20260507191003 58 37 0.0 1.0 0.00 0.00 0.00 87 1009.7
20260507190903 58 39 0.0 1.0 0.00 0.00 0.00 87 1009.8
20260507190803 58 39 1.0 1.0 0.00 0.00 0.00 87 1010.0
20260507190703 58 39 1.0 1.0 0.00 0.00 0.00 87 1010.0
20260507190603 58 37 1.0 1.0 0.00 0.00 0.00 87 1009.8
20260507190503 58 37 1.0 1.0 0.00 0.00 0.00 87 1009.8
20260507190403 58 42 1.0 2.0 0.00 0.00 0.00 86 1009.9
20260507190324 59 43 1.0 2.0 0.00 0.00 0.00 86 1009.8
20260507190203 59 45 1.0 2.0 0.00 0.00 0.00 86 1009.9
20260507190004 59 48 1.0 2.0 0.00 0.00 0.00 86 1009.9
20260507185903 59 48 1.0 2.0 0.00 0.00 0.00 86 1009.9
20260507185824 59 50 1.0 2.0 0.00 0.00 0.00 86 1009.9
20260507185703 59 51 1.0 2.0 0.00 0.00 0.00 86 1009.9
20260507185603 59 53 1.0 2.0 0.00 0.00 0.00 86 1009.9
20260507185503 59 55 1.0 2.0 0.00 0.00 0.00 86 1009.9
20260507185403 59 56 1.0 3.0 0.00 0.00 0.00 86 1010.0
20260507185305 59 47 1.0 3.0 0.00 0.00 0.00 86 1009.8
20260507185203 59 47 1.0 3.0 0.00 0.00 0.00 86 1009.8
20260507185103 59 34 1.0 3.0 0.00 0.00 0.00 86 1009.9
20260507185003 60 25 1.0 3.0 0.00 0.00 0.00 85 1009.9
20260507184903 60 13 1.0 3.0 0.00 0.00 0.00 85 1010.0
20260507184803 60 7 1.0 3.0 0.00 0.00 0.00 85 1009.8
20260507184703 60 337 1.0 3.0 0.00 0.00 0.00 85 1009.8
20260507184624 60 328 1.0 3.0 0.00 0.00 0.00 85 1009.8
20260507184503 60 319 1.0 3.0 0.00 0.00 0.00 84 1009.9
20260507184404 60 314 1.0 3.0 0.00 0.00 0.00 84 1010.0
20260507184303 61 298 1.0 2.0 0.00 0.00 0.00 83 1009.7
20260507184224 61 298 1.0 2.0 0.00 0.00 0.00 83 1009.9
20260507184103 61 298 1.0 2.0 0.00 0.00 0.00 82 1009.7
20260507184003 61 298 1.0 2.0 0.00 0.00 0.00 82 1009.8
20260507183903 61 298 1.0 2.0 0.00 0.00 0.00 82 1009.9
20260507183824 61 298 1.0 2.0 0.00 0.00 0.00 82 1009.9
20260507183703 62 298 1.0 2.0 0.00 0.00 0.00 80 1009.8
20260507183624 62 298 1.0 2.0 0.00 0.00 0.00 80 1009.8
20260507183103 62 299 1.0 2.0 0.00 0.00 0.00 78 1009.8
20260507183024 62 299 1.0 2.0 0.00 0.00 0.00 78 1009.8
20260507182903 62 299 0.0 1.0 0.00 0.00 0.00 78 1009.8
20260507182803 62 299 0.0 1.0 0.00 0.00 0.00 78 1009.8
20260507182703 62 299 0.0 1.0 0.00 0.00 0.00 78 1009.8
20260507182603 62 299 1.0 1.0 0.00 0.00 0.00 77 1009.8
20260507182503 62 299 1.0 1.0 0.00 0.00 0.00 77 1009.8
20260507182424 62 299 1.0 2.0 0.00 0.00 0.00 77 1009.9
20260507182306 62 299 1.0 2.0 0.00 0.00 0.00 78 1009.6
20260507182203 62 299 1.0 2.0 0.00 0.00 0.00 78 1009.8
20260507182103 62 299 1.0 2.0 0.00 0.00 0.00 78 1009.8
20260507182003 62 299 1.0 2.0 0.00 0.00 0.00 78 1009.9
20260507181903 62 299 1.0 2.0 0.00 0.00 0.00 78 1009.8
20260507181803 62 299 1.0 2.0 0.00 0.00 0.00 79 1009.7
20260507181703 62 299 1.0 2.0 0.00 0.00 0.00 78 1009.7
20260507181603 62 299 1.0 2.0 0.00 0.00 0.00 78 1009.9
20260507181503 62 299 1.0 2.0 0.00 0.00 0.00 78 1009.9
20260507181403 62 299 1.0 2.0 0.00 0.00 0.00 78 1009.7
20260507181324 62 299 1.0 2.0 0.00 0.00 0.00 78 1009.7
20260507181224 62 298 1.0 2.0 0.00 0.00 0.00 77 1009.7
20260507181103 62 298 1.0 2.0 0.00 0.00 0.00 77 1009.8
20260507181004 62 298 1.0 2.0 0.00 0.00 0.00 77 1009.8
20260507180903 62 298 1.0 2.0 0.00 0.00 0.00 77 1009.8
20260507180824 62 298 1.0 2.0 0.00 0.00 0.00 76 1009.8
20260507180703 63 298 1.0 2.0 0.00 0.00 0.00 76 1009.7
20260507180603 63 298 1.0 2.0 0.00 0.00 0.00 75 1009.7
20260507180524 64 298 0.0 2.0 0.00 0.00 0.00 75 1009.7
20260507180424 64 299 0.0 2.0 0.00 0.00 0.00 74 1009.8
20260507180303 64 299 0.0 2.0 0.00 0.00 0.00 73 1009.8
20260507180203 64 299 1.0 2.0 0.00 0.00 0.00 75 1009.6
20260507180004 64 299 1.0 2.0 0.00 0.00 0.00 75 1009.8
20260507175924 64 299 1.0 2.0 0.00 0.00 0.00 75 1009.8
20260507175803 64 299 1.0 2.0 0.00 0.00 0.00 76 1009.8
20260507175703 64 299 1.0 2.0 0.00 0.00 0.00 75 1009.7
20260507175603 63 299 1.0 2.0 0.00 0.00 0.00 75 1009.8
20260507175503 63 299 1.0 2.0 0.00 0.00 0.00 75 1009.8
20260507175403 64 299 1.0 2.0 0.00 0.00 0.00 75 1009.7
20260507175306 63 299 1.0 3.0 0.00 0.00 0.00 76 1009.8
20260507175203 63 299 1.0 3.0 0.00 0.00 0.00 76 1009.8
20260507175103 63 293 1.0 3.0 0.00 0.00 0.00 76 1009.5
20260507175003 63 290 1.0 3.0 0.00 0.00 0.00 77 1009.9
20260507174903 63 288 1.0 3.0 0.00 0.00 0.00 78 1009.6
20260507174503 62 289 2.0 4.0 0.00 0.00 0.00 78 1009.8
20260507174403 62 289 2.0 4.0 0.00 0.00 0.00 78 1009.8
20260507174303 62 293 2.0 4.0 0.00 0.00 0.00 77 1009.6
20260507174203 63 295 2.0 4.0 0.00 0.00 0.00 77 1009.6
20260507174103 63 295 2.0 4.0 0.00 0.00 0.00 77 1009.6
20260507174003 63 299 2.0 4.0 0.00 0.00 0.00 77 1009.7
20260507173904 63 301 1.0 4.0 0.00 0.00 0.00 77 1009.5
20260507173824 63 301 2.0 4.0 0.00 0.00 0.00 77 1009.6
20260507173724 62 299 2.0 4.0 0.00 0.00 0.00 77 1009.6
20260507173603 62 299 2.0 4.0 0.00 0.00 0.00 78 1009.6
20260507173503 62 298 2.0 4.0 0.00 0.00 0.00 78 1009.6
20260507173403 62 298 2.0 4.0 0.00 0.00 0.00 78 1009.7
20260507173303 62 292 1.0 4.0 0.00 0.00 0.00 78 1009.6
20260507173203 62 288 1.0 4.0 0.00 0.00 0.00 78 1009.4
20260507173103 62 282 1.0 4.0 0.00 0.00 0.00 79 1009.5
20260507173003 62 279 1.0 4.0 0.00 0.00 0.00 78 1009.6
20260507172903 62 282 2.0 4.0 0.00 0.00 0.00 78 1009.6
20260507172803 62 285 2.0 4.0 0.00 0.00 0.00 78 1009.6
20260507172703 62 292 2.0 4.0 0.00 0.00 0.00 78 1009.6
20260507172624 62 292 2.0 4.0 0.00 0.00 0.00 78 1009.6
20260507172503 62 301 2.0 4.0 0.00 0.00 0.00 77 1009.4
20260507172403 62 310 2.0 4.0 0.00 0.00 0.00 77 1009.5
20260507172307 62 319 2.0 4.0 0.00 0.00 0.00 77 1009.4
20260507172204 62 328 3.0 6.0 0.00 0.00 0.00 77 1009.5
20260507172103 63 333 3.0 6.0 0.00 0.00 0.00 76 1009.5
20260507172003 63 333 3.0 6.0 0.00 0.00 0.00 76 1009.5
20260507171903 63 343 3.0 6.0 0.00 0.00 0.00 76 1009.4
20260507171803 63 349 3.0 6.0 0.00 0.00 0.00 76 1009.5
20260507171703 63 348 3.0 6.0 0.00 0.00 0.00 76 1009.4
20260507171624 63 348 3.0 6.0 0.00 0.00 0.00 76 1009.3
20260507171503 63 354 2.0 6.0 0.00 0.00 0.00 76 1009.5
20260507171403 63 355 2.0 6.0 0.00 0.00 0.00 75 1009.4
20260507171303 63 354 2.0 6.0 0.00 0.00 0.00 76 1009.4
20260507171203 63 351 2.0 6.0 0.00 0.00 0.00 75 1009.3
20260507171124 63 342 2.0 3.0 0.00 0.00 0.00 76 1009.4
20260507171003 63 340 2.0 3.0 0.00 0.00 0.00 76 1009.3
20260507170903 63 340 2.0 4.0 0.00 0.00 0.00 77 1009.2
20260507170804 63 330 2.0 4.0 0.00 0.00 0.00 76 1009.4
20260507170703 63 333 2.0 4.0 0.00 0.00 0.00 76 1009.4
20260507170603 64 328 2.0 4.0 0.00 0.00 0.00 75 1009.4
20260507170503 64 316 2.0 4.0 0.00 0.00 0.00 74 1009.3
20260507170403 64 304 2.0 4.0 0.00 0.00 0.00 74 1009.4
20260507170303 64 304 2.0 4.0 0.00 0.00 0.00 74 1009.4
20260507170203 64 304 2.0 4.0 0.00 0.00 0.00 74 1009.4
20260507170103 64 302 2.0 4.0 0.00 0.00 0.00 73 1009.3
20260507170003 64 300 2.0 4.0 0.00 0.00 0.00 73 1009.4
20260507165903 65 296 2.0 4.0 0.00 0.00 0.00 72 1009.4
20260507165824 65 285 2.0 3.0 0.00 0.00 0.00 70 1009.4
20260507165703 65 285 2.0 3.0 0.00 0.00 0.00 71 1009.4
20260507165603 65 285 2.0 3.0 0.00 0.00 0.00 71 1009.4
20260507165503 66 285 2.0 3.0 0.00 0.00 0.00 71 1009.4
20260507165403 66 285 1.0 3.0 0.00 0.00 0.00 70 1009.4
20260507165306 66 284 1.0 3.0 0.00 0.00 0.00 70 1009.4
20260507165224 66 284 1.0 3.0 0.00 0.00 0.00 70 1009.4
20260507165103 66 284 1.0 3.0 0.00 0.00 0.00 70 1009.2
20260507165003 66 284 1.0 3.0 0.00 0.00 0.00 70 1009.4
20260507164903 66 284 1.0 3.0 0.00 0.00 0.00 71 1009.4
20260507164803 66 284 1.0 3.0 0.00 0.00 0.00 71 1009.4
20260507164703 65 284 1.0 2.0 0.00 0.00 0.00 71 1009.6
20260507164603 65 284 1.0 2.0 0.00 0.00 0.00 71 1009.6
20260507164503 65 284 1.0 2.0 0.00 0.00 0.00 70 1009.6
20260507164403 65 284 1.0 2.0 0.00 0.00 0.00 71 1009.8
20260507164303 64 284 0.0 2.0 0.00 0.00 0.00 73 1009.7
20260507164203 64 284 0.0 2.0 0.00 0.00 0.00 73 1009.7
20260507164124 64 284 1.0 2.0 0.00 0.00 0.00 72 1009.8
20260507164003 64 284 1.0 2.0 0.00 0.00 0.00 72 1009.8
20260507163903 64 284 1.0 2.0 0.00 0.00 0.00 71 1010.0
20260507163824 64 284 1.0 2.0 0.00 0.00 0.00 71 1009.8
20260507163703 64 284 1.0 2.0 0.00 0.00 0.00 72 1009.9
20260507163603 64 284 1.0 2.0 0.00 0.00 0.00 72 1009.9
20260507163503 64 284 1.0 2.0 0.00 0.00 0.00 71 1009.9
20260507163403 64 284 1.0 2.0 0.00 0.00 0.00 70 1010.0
20260507163303 64 284 1.0 2.0 0.00 0.00 0.00 70 1010.0
20260507163203 64 284 1.0 2.0 0.00 0.00 0.00 71 1009.9
20260507163103 64 284 1.0 2.0 0.00 0.00 0.00 70 1009.9
20260507163003 65 284 1.0 2.0 0.00 0.00 0.00 70 1010.1
20260507162903 65 284 1.0 2.0 0.00 0.00 0.00 70 1010.0
20260507162803 65 284 1.0 2.0 0.00 0.00 0.00 70 1010.0
20260507162703 65 284 1.0 2.0 0.00 0.00 0.00 69 1010.0
20260507162603 66 284 1.0 2.0 0.00 0.00 0.00 67 1009.9
20260507162503 66 284 1.0 2.0 0.00 0.00 0.00 67 1009.9
20260507162403 66 284 0.0 2.0 0.00 0.00 0.00 66 1009.9
20260507162306 67 284 0.0 2.0 0.00 0.00 0.00 65 1010.0
20260507162224 67 284 0.0 2.0 0.00 0.00 0.00 64 1010.1
20260507162103 67 284 0.0 2.0 0.00 0.00 0.00 65 1009.9
20260507162003 66 284 0.0 3.0 0.00 0.00 0.00 68 1010.0
20260507161903 65 284 0.0 3.0 0.00 0.00 0.00 69 1010.0
20260507161803 65 284 1.0 3.0 0.00 0.00 0.00 71 1010.0
20260507161703 65 284 1.0 3.0 0.00 0.00 0.00 71 1010.0
20260507161603 65 284 1.0 3.0 0.00 0.00 0.00 72 1010.1
20260507161503 65 284 1.0 3.0 0.00 0.00 0.00 72 1009.9
20260507161404 64 284 1.0 3.0 0.00 0.00 0.00 71 1010.4
20260507161303 64 284 1.0 3.0 0.00 0.00 0.00 71 1010.4
20260507161203 64 284 1.0 3.0 0.00 0.00 0.00 70 1010.0
20260507161103 64 284 1.0 3.0 0.00 0.00 0.00 69 1010.2
20260507161003 65 284 1.0 3.0 0.00 0.00 0.00 69 1010.1
20260507160924 65 284 1.0 2.0 0.00 0.00 0.00 68 1010.1
20260507160803 65 284 1.0 2.0 0.00 0.00 0.00 70 1010.4
20260507160703 65 284 1.0 2.0 0.00 0.00 0.00 68 1010.2
20260507160603 65 284 0.0 2.0 0.00 0.00 0.00 71 1010.4
20260507160503 65 284 1.0 2.0 0.00 0.00 0.00 70 1010.1
20260507160403 65 284 1.0 2.0 0.00 0.00 0.00 69 1010.0
20260507160303 65 284 1.0 2.0 0.00 0.00 0.00 70 1010.2
20260507160203 65 284 1.0 2.0 0.00 0.00 0.00 70 1010.1
20260507160103 65 284 0.0 2.0 0.00 0.00 0.00 69 1010.1
20260507160003 64 284 1.0 2.0 0.00 0.00 0.00 70 1010.1
20260507155924 64 284 1.0 2.0 0.00 0.00 0.00 70 1010.1
20260507155803 64 284 1.0 2.0 0.00 0.00 0.00 72 1010.2
20260507155703 64 284 1.0 2.0 0.00 0.00 0.00 72 1010.2
20260507155603 64 284 1.0 2.0 0.00 0.00 0.00 70 1010.2
20260507155503 63 284 1.0 2.0 0.00 0.00 0.00 70 1010.1
20260507155424 64 284 1.0 2.0 0.00 0.00 0.00 70 1010.1
20260507155306 64 284 1.0 2.0 0.00 0.00 0.00 70 1010.0
20260507155224 63 284 1.0 2.0 0.00 0.00 0.00 73 1010.1
20260507155124 63 284 1.0 2.0 0.00 0.00 0.00 72 1009.8
20260507155003 63 284 1.0 3.0 0.00 0.00 0.00 71 1010.0
20260507154904 63 284 1.0 3.0 0.00 0.00 0.00 71 1010.1
20260507154803 63 284 2.0 3.0 0.00 0.00 0.00 73 1010.1
20260507154724 63 284 2.0 3.0 0.00 0.00 0.00 73 1010.1
20260507154603 63 284 2.0 3.0 0.00 0.00 0.00 71 1010.0
20260507154503 63 284 2.0 3.0 0.00 0.00 0.00 71 1010.4
20260507154403 63 284 2.0 3.0 0.00 0.00 0.00 71 1010.4
20260507154303 63 284 2.0 3.0 0.00 0.00 0.00 73 1010.0
20260507154203 63 284 2.0 3.0 0.00 0.00 0.00 72 1010.1
20260507154103 63 284 2.0 3.0 0.00 0.00 0.00 71 1010.1
20260507154003 64 284 2.0 3.0 0.00 0.00 0.00 71 1010.1
20260507153903 64 284 2.0 3.0 0.00 0.00 0.00 71 1010.2
20260507153804 64 287 2.0 3.0 0.00 0.00 0.00 71 1010.0
20260507153703 64 292 2.0 3.0 0.00 0.00 0.00 71 1010.4
20260507153603 64 295 2.0 3.0 0.00 0.00 0.00 71 1010.0
20260507153504 64 299 2.0 3.0 0.00 0.00 0.00 71 1010.1
20260507153403 63 302 2.0 3.0 0.00 0.00 0.00 72 1010.0
20260507153303 63 305 2.0 3.0 0.00 0.00 0.00 72 1010.1
20260507153203 63 307 2.0 3.0 0.00 0.00 0.00 72 1010.1
20260507153103 63 319 2.0 4.0 0.00 0.00 0.00 72 1009.9
20260507153003 63 320 2.0 4.0 0.00 0.00 0.00 72 1010.1
20260507152903 63 324 2.0 4.0 0.00 0.00 0.00 72 1010.0
20260507152803 64 325 2.0 4.0 0.00 0.00 0.00 72 1009.8
20260507152703 64 326 2.0 4.0 0.00 0.00 0.00 72 1010.0
20260507152603 64 330 2.0 4.0 0.00 0.00 0.00 72 1009.9
20260507152503 64 330 2.0 4.0 0.00 0.00 0.00 72 1009.9
20260507152403 64 326 2.0 4.0 0.00 0.00 0.00 72 1010.0
20260507152306 65 324 2.0 4.0 0.00 0.00 0.00 71 1009.8
20260507152203 66 322 2.0 4.0 0.00 0.00 0.00 71 1009.8
20260507152103 66 319 2.0 4.0 0.00 0.00 0.00 71 1010.0
20260507152003 66 307 2.0 4.0 0.00 0.00 0.00 71 1010.1
20260507151903 66 300 3.0 6.0 0.00 0.00 0.00 70 1009.8
20260507151803 66 304 3.0 6.0 0.00 0.00 0.00 71 1009.8
20260507151703 66 299 3.0 6.0 0.00 0.00 0.00 71 1009.9
20260507151603 65 291 3.0 6.0 0.00 0.00 0.00 72 1010.0
20260507151524 65 291 3.0 6.0 0.00 0.00 0.00 72 1010.0
20260507151403 64 290 3.0 6.0 0.00 0.00 0.00 74 1010.0
20260507151303 64 289 3.0 6.0 0.00 0.00 0.00 72 1010.0
20260507151203 64 289 3.0 6.0 0.00 0.00 0.00 72 1010.0
20260507151124 64 289 3.0 6.0 0.00 0.00 0.00 72 1010.0
20260507151003 64 299 3.0 6.0 0.00 0.00 0.00 73 1010.2
20260507150903 64 299 3.0 6.0 0.00 0.00 0.00 73 1010.2
20260507150803 64 305 3.0 4.0 0.00 0.00 0.00 74 1010.1
20260507150704 64 306 3.0 4.0 0.00 0.00 0.00 73 1010.0
20260507150603 64 304 3.0 6.0 0.00 0.00 0.00 73 1009.8
20260507150503 64 298 3.0 6.0 0.00 0.00 0.00 74 1010.1
20260507150403 64 295 3.0 6.0 0.00 0.00 0.00 74 1010.1
20260507150324 64 293 3.0 6.0 0.00 0.00 0.00 74 1009.9
20260507150203 64 294 3.0 6.0 0.00 0.00 0.00 73 1009.9
20260507150103 64 295 3.0 6.0 0.00 0.00 0.00 74 1009.9
20260507150003 64 291 3.0 6.0 0.00 0.00 0.00 73 1010.1
20260507145903 64 286 3.0 6.0 0.00 0.00 0.00 74 1009.9
20260507145803 64 285 3.0 6.0 0.00 0.00 0.00 73 1009.9
20260507145703 65 285 3.0 6.0 0.00 0.00 0.00 71 1010.0
20260507145603 65 285 3.0 6.0 0.00 0.00 0.00 71 1010.0
20260507145503 65 298 3.0 7.0 0.00 0.00 0.00 72 1010.2
20260507145403 65 314 3.0 7.0 0.00 0.00 0.00 71 1010.0
20260507145306 64 321 3.0 7.0 0.00 0.00 0.00 73 1009.9
20260507145203 63 331 3.0 7.0 0.00 0.00 0.00 75 1010.1
20260507145103 63 340 3.0 7.0 0.00 0.00 0.00 75 1010.0
20260507145024 63 346 3.0 7.0 0.00 0.00 0.00 75 1010.1
20260507144903 63 350 4.0 7.0 0.00 0.00 0.00 74 1009.9
20260507144803 63 357 3.0 7.0 0.00 0.00 0.00 75 1010.0
20260507144704 63 1 4.0 7.0 0.00 0.00 0.00 75 1010.2
20260507144603 63 360 4.0 7.0 0.00 0.00 0.00 74 1010.2
20260507144503 62 4 4.0 7.0 0.00 0.00 0.00 76 1009.8
20260507144403 61 5 4.0 7.0 0.00 0.00 0.00 76 1010.0
20260507144303 61 5 4.0 7.0 0.00 0.00 0.00 75 1010.0
20260507144203 61 5 4.0 7.0 0.00 0.00 0.00 76 1010.0
20260507144124 61 5 4.0 7.0 0.00 0.00 0.00 76 1010.0
20260507144003 61 6 3.0 7.0 0.00 0.00 0.00 76 1010.0
20260507143903 61 6 3.0 7.0 0.00 0.00 0.00 76 1010.0
20260507143803 61 6 3.0 6.0 0.00 0.00 0.00 77 1010.0
20260507143703 61 6 2.0 6.0 0.00 0.00 0.00 77 1010.2
20260507143603 61 358 2.0 4.0 0.00 0.00 0.00 77 1010.2
20260507143503 61 360 2.0 4.0 0.00 0.00 0.00 77 1010.2
20260507143403 61 349 2.0 4.0 0.00 0.00 0.00 77 1010.2
20260507143303 61 348 2.0 4.0 0.00 0.00 0.00 77 1010.6
20260507143224 61 345 2.0 4.0 0.00 0.00 0.00 78 1010.6
20260507143103 61 344 1.0 4.0 0.00 0.00 0.00 78 1010.7
20260507143003 61 345 1.0 4.0 0.00 0.00 0.00 79 1010.6
20260507142903 61 346 1.0 4.0 0.00 0.00 0.00 79 1010.8
20260507142803 61 346 1.0 4.0 0.00 0.00 0.00 79 1010.8
20260507142703 61 347 1.0 4.0 0.00 0.00 0.00 78 1010.9
20260507142603 61 354 1.0 3.0 0.00 0.00 0.00 78 1010.8
20260507142503 61 352 1.0 3.0 0.00 0.00 0.00 79 1010.8
20260507142403 61 352 1.0 2.0 0.00 0.00 0.00 79 1011.0
20260507142306 61 354 1.0 2.0 0.00 0.00 0.00 79 1011.0
20260507142203 61 354 1.0 2.0 0.00 0.00 0.00 79 1011.0
20260507142124 61 354 1.0 2.0 0.00 0.00 0.00 79 1011.0
20260507142003 61 353 1.0 2.0 0.00 0.00 0.00 79 1011.1
20260507141903 61 354 1.0 2.0 0.00 0.00 0.00 80 1011.0
20260507141803 61 354 2.0 3.0 0.00 0.00 0.00 79 1011.1
20260507141703 61 354 2.0 3.0 0.00 0.00 0.00 79 1010.9
20260507141603 61 354 2.0 3.0 0.00 0.00 0.00 79 1010.9
20260507141503 61 354 2.0 3.0 0.00 0.00 0.00 79 1011.0
20260507141403 61 3 2.0 4.0 0.00 0.00 0.00 79 1011.0
20260507141303 61 7 2.0 4.0 0.00 0.00 0.00 79 1011.2
20260507141203 61 6 2.0 6.0 0.00 0.00 0.00 79 1010.8
20260507141124 61 5 2.0 6.0 0.00 0.00 0.00 79 1011.0
20260507141003 61 5 3.0 6.0 0.00 0.00 0.00 79 1011.0
20260507140903 61 6 3.0 6.0 0.00 0.00 0.00 79 1011.0
20260507140824 61 7 2.0 6.0 0.00 0.00 0.00 79 1010.9
20260507140724 61 7 2.0 6.0 0.00 0.00 0.00 79 1010.9
20260507140603 61 8 2.0 6.0 0.00 0.00 0.00 79 1011.0
20260507140503 61 5 3.0 6.0 0.00 0.00 0.00 78 1010.9
20260507140403 61 3 3.0 7.0 0.00 0.00 0.00 78 1011.0
20260507140303 61 4 3.0 7.0 0.00 0.00 0.00 78 1010.9
20260507140203 62 5 2.0 7.0 0.00 0.00 0.00 78 1010.8
20260507140103 62 4 3.0 7.0 0.00 0.00 0.00 78 1011.0
20260507140024 62 4 3.0 7.0 0.00 0.00 0.00 78 1011.0
20260507135925 62 5 2.0 7.0 0.00 0.00 0.00 78 1011.0
20260507135824 61 3 3.0 7.0 0.00 0.00 0.00 78 1010.9
20260507135703 61 2 3.0 7.0 0.00 0.00 0.00 77 1010.8
20260507135603 61 3 3.0 7.0 0.00 0.00 0.00 77 1010.9
20260507135503 62 3 3.0 7.0 0.00 0.00 0.00 77 1010.8
20260507135403 62 1 3.0 7.0 0.00 0.00 0.00 77 1010.8
20260507135306 62 358 3.0 7.0 0.00 0.00 0.00 77 1011.0
20260507135203 62 359 3.0 7.0 0.00 0.00 0.00 76 1011.0
20260507135104 62 357 3.0 7.0 0.00 0.00 0.00 77 1011.0
20260507135003 62 355 3.0 8.0 0.00 0.00 0.00 77 1010.9
20260507134903 62 357 3.0 8.0 0.00 0.00 0.00 76 1010.8
20260507134803 63 354 3.0 8.0 0.00 0.00 0.00 77 1010.7
20260507134703 63 357 3.0 8.0 0.00 0.00 0.00 76 1010.8
20260507134603 63 352 3.0 8.0 0.00 0.00 0.00 76 1010.8
20260507134503 63 352 3.0 8.0 0.00 0.00 0.00 76 1010.9
20260507134403 63 353 3.0 8.0 0.00 0.00 0.00 76 1010.9
20260507134303 63 353 3.0 8.0 0.00 0.00 0.00 76 1010.9
20260507134203 63 349 3.0 8.0 0.00 0.00 0.00 76 1010.8
20260507134103 64 347 3.0 8.0 0.00 0.00 0.00 76 1010.8
20260507134003 64 348 3.0 8.0 0.00 0.00 0.00 76 1010.8
20260507133903 64 352 3.0 7.0 0.00 0.00 0.00 76 1010.6
20260507133803 64 348 3.0 7.0 0.00 0.00 0.00 77 1010.7
20260507133703 64 351 3.0 7.0 0.00 0.00 0.00 78 1010.6
20260507133603 63 353 3.0 7.0 0.00 0.00 0.00 80 1010.7
20260507133503 64 354 4.0 9.0 0.00 0.00 0.00 77 1010.7
20260507133403 64 354 4.0 9.0 0.00 0.00 0.00 77 1010.6
20260507133303 64 352 4.0 9.0 0.00 0.00 0.00 78 1010.7
20260507133203 63 359 4.0 11.0 0.00 0.00 0.00 77 1010.4
20260507133103 63 359 4.0 11.0 0.00 0.00 0.00 79 1010.5
20260507133003 63 359 5.0 11.0 0.00 0.00 0.00 79 1010.7
20260507132903 62 358 5.0 11.0 0.00 0.00 0.00 79 1010.6
20260507132824 62 358 5.0 11.0 0.00 0.00 0.00 79 1010.6
20260507132703 61 356 5.0 11.0 0.00 0.00 0.00 79 1010.7
20260507132603 61 355 5.0 11.0 0.00 0.00 0.00 78 1010.5
20260507132503 61 354 5.0 11.0 0.00 0.00 0.00 78 1010.6
20260507132404 62 358 5.0 11.0 0.00 0.00 0.00 79 1010.6
20260507132324 62 357 5.0 11.0 0.00 0.00 0.00 79 1010.6
20260507132203 62 358 5.0 11.0 0.00 0.00 0.00 78 1010.6
20260507132103 62 356 5.0 10.0 0.00 0.00 0.00 78 1010.7
20260507132024 62 360 5.0 11.0 0.00 0.00 0.00 79 1010.7
20260507131903 62 358 5.0 11.0 0.00 0.00 0.00 79 1010.6
20260507131824 62 357 5.0 11.0 0.00 0.00 0.00 78 1010.6
20260507131703 63 3 6.0 13.0 0.00 0.00 0.00 78 1010.6
20260507131604 63 3 5.0 13.0 0.00 0.00 0.00 78 1010.7
20260507131503 63 2 5.0 13.0 0.00 0.00 0.00 78 1010.5
20260507131403 63 360 5.0 13.0 0.00 0.00 0.00 79 1010.5
20260507131303 63 360 5.0 13.0 0.00 0.00 0.00 79 1010.6
20260507131203 63 358 5.0 13.0 0.00 0.00 0.00 80 1010.6
20260507131103 63 358 5.0 13.0 0.00 0.00 0.00 80 1010.6
20260507131003 63 358 5.0 13.0 0.00 0.00 0.00 79 1010.4
20260507130903 63 352 4.0 13.0 0.00 0.00 0.00 79 1010.6
20260507130804 63 351 4.0 13.0 0.00 0.00 0.00 79 1010.5
20260507130703 63 351 4.0 13.0 0.00 0.00 0.00 79 1010.5
20260507130603 63 344 4.0 10.0 0.00 0.00 0.00 79 1010.4
20260507130503 63 346 4.0 10.0 0.00 0.00 0.00 80 1010.9
20260507130403 63 354 4.0 10.0 0.00 0.00 0.00 79 1010.5
20260507130303 64 354 4.0 10.0 0.00 0.00 0.00 78 1010.4
20260507130203 64 357 4.0 10.0 0.00 0.00 0.00 79 1010.6
20260507130104 63 2 4.0 10.0 0.00 0.00 0.00 80 1010.6
20260507130003 62 1 5.0 10.0 0.00 0.00 0.00 81 1010.6
20260507125903 62 1 5.0 10.0 0.00 0.00 0.00 81 1010.6
20260507125803 62 3 5.0 10.0 0.00 0.00 0.00 81 1010.7
20260507125703 62 4 5.0 10.0 0.00 0.00 0.00 81 1010.9
20260507125624 62 3 5.0 10.0 0.00 0.00 0.00 81 1010.7
20260507125503 62 4 5.0 10.0 0.00 0.00 0.00 80 1010.7
20260507125403 62 1 5.0 10.0 0.00 0.00 0.00 79 1010.7
20260507125306 62 355 6.0 10.0 0.00 0.00 0.00 78 1010.9
20260507125203 62 355 5.0 10.0 0.00 0.00 0.00 79 1010.6
20260507125103 62 355 6.0 11.0 0.00 0.00 0.00 79 1010.8
20260507125003 62 352 6.0 11.0 0.00 0.00 0.00 79 1010.7
20260507124903 62 350 6.0 11.0 0.00 0.00 0.00 79 1010.7
20260507124803 62 348 6.0 11.0 0.00 0.00 0.00 79 1010.6
20260507124703 62 347 5.0 11.0 0.00 0.00 0.00 78 1010.7
20260507124603 62 347 5.0 11.0 0.00 0.00 0.00 77 1010.8
20260507124524 62 347 5.0 11.0 0.00 0.00 0.00 77 1010.8
20260507124403 63 347 5.0 11.0 0.00 0.00 0.00 78 1010.8
20260507124303 63 348 5.0 11.0 0.00 0.00 0.00 78 1011.1
20260507124224 64 348 4.0 11.0 0.00 0.00 0.00 77 1010.8
20260507124103 64 345 4.0 11.0 0.00 0.00 0.00 77 1010.7
20260507124003 64 332 4.0 9.0 0.00 0.00 0.00 76 1010.8
20260507123924 64 333 3.0 9.0 0.00 0.00 0.00 78 1010.9
20260507123803 64 336 3.0 10.0 0.00 0.00 0.00 80 1010.9
20260507123703 64 339 4.0 10.0 0.00 0.00 0.00 79 1010.8
20260507123603 64 342 4.0 10.0 0.00 0.00 0.00 78 1010.9
20260507123503 64 344 4.0 10.0 0.00 0.00 0.00 80 1010.9
20260507123403 64 343 4.0 10.0 0.00 0.00 0.00 80 1010.8
20260507123303 64 344 5.0 10.0 0.00 0.00 0.00 79 1010.9
20260507123203 63 344 5.0 10.0 0.00 0.00 0.00 79 1011.0
20260507123103 63 348 5.0 10.0 0.00 0.00 0.00 80 1011.0
20260507123003 63 351 5.0 10.0 0.00 0.00 0.00 79 1010.9
20260507122903 63 354 5.0 10.0 0.00 0.00 0.00 79 1011.0
20260507122803 63 355 4.0 8.0 0.00 0.00 0.00 79 1010.9
20260507122703 63 355 4.0 8.0 0.00 0.00 0.00 79 1010.9
20260507122603 63 357 4.0 8.0 0.00 0.00 0.00 79 1011.0
20260507122503 63 356 4.0 8.0 0.00 0.00 0.00 78 1010.9
20260507122403 63 354 4.0 8.0 0.00 0.00 0.00 80 1011.0
20260507122306 63 350 4.0 8.0 0.00 0.00 0.00 80 1011.0
20260507122203 63 350 4.0 8.0 0.00 0.00 0.00 79 1011.0
20260507122124 63 353 4.0 8.0 0.00 0.00 0.00 79 1010.9
20260507122003 63 350 5.0 10.0 0.00 0.00 0.00 78 1011.1
20260507121903 63 354 4.0 10.0 0.00 0.00 0.00 80 1011.0
20260507121824 63 349 5.0 10.0 0.00 0.00 0.00 79 1011.2
20260507121703 63 348 5.0 10.0 0.00 0.00 0.00 78 1011.1
20260507121603 63 347 5.0 10.0 0.00 0.00 0.00 79 1011.3
20260507121503 63 348 5.0 10.0 0.00 0.00 0.00 79 1011.1
20260507121424 63 348 5.0 10.0 0.00 0.00 0.00 79 1011.1
20260507121324 62 352 5.0 10.0 0.00 0.00 0.00 80 1011.3
20260507121203 62 350 5.0 10.0 0.00 0.00 0.00 80 1011.2
20260507121124 62 349 5.0 10.0 0.00 0.00 0.00 80 1011.1
20260507121003 62 347 5.0 10.0 0.00 0.00 0.00 80 1011.1
20260507120903 62 347 4.0 10.0 0.00 0.00 0.00 80 1011.1
20260507120803 63 344 4.0 10.0 0.00 0.00 0.00 79 1011.0
20260507120724 63 341 4.0 10.0 0.00 0.00 0.00 79 1011.3
20260507120603 63 344 4.0 10.0 0.00 0.00 0.00 78 1011.2
20260507120503 64 347 4.0 10.0 0.00 0.00 0.00 77 1011.3
20260507120403 64 344 4.0 8.0 0.00 0.00 0.00 77 1011.2
20260507120303 64 339 3.0 8.0 0.00 0.00 0.00 78 1011.2
20260507120224 64 343 3.0 8.0 0.00 0.00 0.00 78 1011.3
20260507120004 64 350 3.0 9.0 0.00 0.00 0.00 78 1011.3
20260507115903 64 353 3.0 9.0 0.00 0.00 0.00 79 1011.3
20260507115824 64 353 3.0 9.0 0.00 0.00 0.00 79 1011.3
20260507115703 64 357 4.0 9.0 0.00 0.00 0.00 79 1011.4
20260507115603 64 357 3.0 9.0 0.00 0.00 0.00 79 1011.3
20260507115503 64 357 3.0 9.0 0.00 0.00 0.00 79 1011.3
20260507115403 64 353 3.0 9.0 0.00 0.00 0.00 80 1011.1
20260507115306 63 355 3.0 9.0 0.00 0.00 0.00 81 1011.2
20260507115203 63 356 4.0 9.0 0.00 0.00 0.00 80 1011.1
20260507115124 63 1 4.0 9.0 0.00 0.00 0.00 80 1011.1
20260507115003 62 1 4.0 9.0 0.00 0.00 0.00 81 1011.3
20260507114903 62 2 4.0 7.0 0.00 0.00 0.00 81 1011.2
20260507114803 62 2 4.0 7.0 0.00 0.00 0.00 81 1011.1
20260507114703 61 4 4.0 7.0 0.00 0.00 0.00 81 1011.5
20260507114624 61 1 4.0 7.0 0.00 0.00 0.00 81 1011.2
20260507114524 61 360 4.0 8.0 0.00 0.00 0.00 80 1011.3
20260507114403 61 356 4.0 8.0 0.00 0.00 0.00 80 1011.2
20260507114303 61 356 4.0 8.0 0.00 0.00 0.00 80 1011.2
20260507114203 61 351 4.0 8.0 0.00 0.00 0.00 81 1011.2
20260507114103 62 342 4.0 8.0 0.00 0.00 0.00 80 1011.3
20260507114003 62 342 4.0 8.0 0.00 0.00 0.00 80 1011.3
20260507113903 62 334 3.0 8.0 0.00 0.00 0.00 79 1011.4
20260507113803 62 323 3.0 8.0 0.00 0.00 0.00 80 1011.3
20260507113703 62 316 4.0 8.0 0.00 0.00 0.00 78 1011.3
20260507113603 63 304 4.0 9.0 0.00 0.00 0.00 77 1011.4
20260507113503 64 298 4.0 9.0 0.00 0.00 0.00 77 1011.3
20260507113403 64 295 3.0 9.0 0.00 0.00 0.00 77 1011.5
20260507113303 64 297 3.0 9.0 0.00 0.00 0.00 77 1011.3
20260507113203 64 296 4.0 9.0 0.00 0.00 0.00 78 1011.4
20260507113103 64 298 4.0 9.0 0.00 0.00 0.00 78 1011.3
20260507113003 63 299 3.0 9.0 0.00 0.00 0.00 79 1011.2
20260507112924 63 300 3.0 9.0 0.00 0.00 0.00 79 1011.3
20260507112803 64 302 4.0 9.0 0.00 0.00 0.00 78 1011.3
20260507112703 64 307 3.0 9.0 0.00 0.00 0.00 78 1011.1
20260507112603 64 324 3.0 7.0 0.00 0.00 0.00 80 1011.1
20260507112503 64 326 3.0 7.0 0.00 0.00 0.00 78 1011.2
20260507112403 64 318 3.0 7.0 0.00 0.00 0.00 78 1011.2
20260507112306 64 318 3.0 7.0 0.00 0.00 0.00 78 1011.2
20260507112203 64 317 3.0 7.0 0.00 0.00 0.00 79 1011.2
20260507112124 64 318 3.0 7.0 0.00 0.00 0.00 81 1011.2
20260507112003 64 324 3.0 7.0 0.00 0.00 0.00 80 1011.0
20260507111924 63 325 3.0 7.0 0.00 0.00 0.00 80 1011.1
20260507111803 63 327 3.0 7.0 0.00 0.00 0.00 79 1011.3
20260507111703 63 336 3.0 8.0 0.00 0.00 0.00 80 1011.3
20260507111603 63 334 3.0 8.0 0.00 0.00 0.00 79 1011.4
20260507111503 63 328 4.0 8.0 0.00 0.00 0.00 79 1011.1
20260507111403 63 328 4.0 8.0 0.00 0.00 0.00 79 1011.2
20260507111303 63 330 3.0 8.0 0.00 0.00 0.00 79 1011.2
20260507111224 62 328 3.0 8.0 0.00 0.00 0.00 79 1011.0
20260507111124 62 328 3.0 8.0 0.00 0.00 0.00 79 1011.0
20260507111003 62 333 3.0 8.0 0.00 0.00 0.00 78 1011.1
20260507110903 63 337 3.0 8.0 0.00 0.00 0.00 78 1011.2
20260507110803 63 337 3.0 8.0 0.00 0.00 0.00 78 1011.2
20260507110703 63 339 3.0 8.0 0.00 0.00 0.00 78 1011.0
20260507110603 63 335 3.0 7.0 0.00 0.00 0.00 78 1010.9
20260507110503 63 337 3.0 7.0 0.00 0.00 0.00 78 1011.1
20260507110403 63 347 3.0 6.0 0.00 0.00 0.00 78 1010.9
20260507110303 63 348 3.0 8.0 0.00 0.00 0.00 79 1011.1
20260507110203 63 344 3.0 8.0 0.00 0.00 0.00 79 1011.2
20260507110104 63 340 4.0 8.0 0.00 0.00 0.00 78 1011.2
20260507110003 63 339 3.0 8.0 0.00 0.00 0.00 77 1010.9
20260507105903 63 334 3.0 8.0 0.00 0.00 0.00 77 1011.0
20260507105803 63 331 3.0 8.0 0.00 0.00 0.00 77 1011.2
20260507105703 63 328 3.0 8.0 0.00 0.00 0.00 77 1011.2
20260507105603 63 324 4.0 8.0 0.00 0.00 0.00 77 1011.2
20260507105503 63 322 4.0 8.0 0.00 0.00 0.00 77 1011.4
20260507105424 63 322 4.0 8.0 0.00 0.00 0.00 77 1011.4
20260507105306 63 310 3.0 7.0 0.00 0.00 0.00 77 1011.1
20260507105203 63 313 3.0 7.0 0.00 0.00 0.00 78 1011.0
20260507105124 63 313 3.0 7.0 0.00 0.00 0.00 78 1011.0
20260507105024 63 313 3.0 7.0 0.00 0.00 0.00 78 1011.3
20260507104903 63 310 3.0 7.0 0.00 0.00 0.00 77 1011.3
20260507104803 63 310 3.0 7.0 0.00 0.00 0.00 77 1011.3
20260507104703 63 316 3.0 7.0 0.00 0.00 0.00 77 1011.3
20260507104603 63 323 3.0 7.0 0.00 0.00 0.00 76 1011.3
20260507104503 63 337 3.0 6.0 0.00 0.00 0.00 77 1011.3
20260507104403 63 345 3.0 6.0 0.00 0.00 0.00 77 1011.2
20260507104303 63 356 4.0 6.0 0.00 0.00 0.00 77 1011.2
20260507104204 63 3 4.0 6.0 0.00 0.00 0.00 77 1011.3
20260507104103 63 8 4.0 6.0 0.00 0.00 0.00 77 1011.4
20260507104003 62 18 4.0 6.0 0.00 0.00 0.00 78 1011.2
20260507103903 62 25 4.0 6.0 0.00 0.00 0.00 77 1011.4
20260507103824 63 33 4.0 6.0 0.00 0.00 0.00 77 1011.3
20260507103724 63 34 3.0 6.0 0.00 0.00 0.00 78 1011.2
20260507103603 62 35 3.0 6.0 0.00 0.00 0.00 79 1011.2
20260507103503 62 36 3.0 6.0 0.00 0.00 0.00 78 1011.3
20260507103403 62 36 3.0 6.0 0.00 0.00 0.00 77 1011.3
20260507103303 62 37 3.0 6.0 0.00 0.00 0.00 77 1011.3
20260507103203 62 37 2.0 6.0 0.00 0.00 0.00 78 1011.3
20260507103103 62 37 2.0 6.0 0.00 0.00 0.00 78 1011.3
20260507103003 63 37 2.0 6.0 0.00 0.00 0.00 77 1011.2
20260507102903 63 37 2.0 6.0 0.00 0.00 0.00 77 1011.2
20260507102803 63 37 2.0 4.0 0.00 0.00 0.00 78 1011.2
20260507102724 63 37 2.0 4.0 0.00 0.00 0.00 77 1011.2
20260507102603 63 37 2.0 4.0 0.00 0.00 0.00 77 1011.2
20260507102503 63 37 2.0 4.0 0.00 0.00 0.00 77 1011.3
20260507102403 63 37 2.0 4.0 0.00 0.00 0.00 76 1011.2
20260507102306 64 37 2.0 4.0 0.00 0.00 0.00 75 1011.1
20260507102203 64 37 2.0 4.0 0.00 0.00 0.00 76 1011.2
20260507102103 64 37 2.0 4.0 0.00 0.00 0.00 76 1011.1
20260507102003 64 37 2.0 4.0 0.00 0.00 0.00 75 1011.2
20260507101924 64 37 1.0 3.0 0.00 0.00 0.00 75 1011.1
20260507101803 63 37 1.0 3.0 0.00 0.00 0.00 74 1011.2
20260507101724 63 37 1.0 3.0 0.00 0.00 0.00 74 1011.2
20260507101603 63 37 1.0 2.0 0.00 0.00 0.00 71 1011.3
20260507101503 63 37 1.0 2.0 0.00 0.00 0.00 70 1011.2
20260507101403 64 37 1.0 3.0 0.00 0.00 0.00 69 1011.1
20260507101303 64 37 1.0 3.0 0.00 0.00 0.00 69 1011.2
20260507101203 64 37 1.0 3.0 0.00 0.00 0.00 70 1011.2
20260507101103 64 37 1.0 3.0 0.00 0.00 0.00 70 1011.2
20260507101003 63 37 1.0 3.0 0.00 0.00 0.00 70 1011.1
20260507100903 62 37 1.0 3.0 0.00 0.00 0.00 72 1011.1
20260507100824 62 37 1.0 3.0 0.00 0.00 0.00 71 1011.2
20260507100703 62 37 1.0 3.0 0.00 0.00 0.00 71 1011.3
20260507100603 62 37 1.0 3.0 0.00 0.00 0.00 72 1011.2
20260507100503 63 37 1.0 3.0 0.00 0.00 0.00 72 1011.3
20260507100403 63 37 1.0 3.0 0.00 0.00 0.00 72 1011.2
20260507100303 63 37 1.0 3.0 0.00 0.00 0.00 74 1011.3
20260507100224 63 37 1.0 3.0 0.00 0.00 0.00 74 1011.3
20260507100003 62 37 1.0 3.0 0.00 0.00 0.00 72 1011.3
20260507095903 62 37 1.0 3.0 0.00 0.00 0.00 72 1011.3
20260507095803 62 37 1.0 3.0 0.00 0.00 0.00 72 1011.3
20260507095703 62 37 1.0 3.0 0.00 0.00 0.00 72 1011.1
20260507095603 62 37 1.0 3.0 0.00 0.00 0.00 73 1011.2
20260507095504 62 37 1.0 3.0 0.00 0.00 0.00 75 1011.2
20260507095403 62 37 1.0 3.0 0.00 0.00 0.00 72 1010.9
20260507095305 63 37 1.0 3.0 0.00 0.00 0.00 74 1011.2
20260507095203 62 37 1.0 3.0 0.00 0.00 0.00 76 1011.1
20260507095103 62 37 1.0 3.0 0.00 0.00 0.00 76 1011.1
20260507095003 62 37 1.0 3.0 0.00 0.00 0.00 76 1011.2
20260507094903 62 37 1.0 3.0 0.00 0.00 0.00 74 1011.1
20260507094803 62 37 1.0 3.0 0.00 0.00 0.00 74 1011.2
20260507094703 62 37 1.0 3.0 0.00 0.00 0.00 76 1011.2
20260507094603 62 37 2.0 3.0 0.00 0.00 0.00 73 1011.1
20260507094503 62 37 1.0 3.0 0.00 0.00 0.00 74 1011.1
20260507094403 62 37 1.0 3.0 0.00 0.00 0.00 75 1011.2
20260507094303 62 37 1.0 3.0 0.00 0.00 0.00 75 1011.1
20260507094203 62 37 1.0 3.0 0.00 0.00 0.00 76 1011.2
20260507094104 62 37 1.0 3.0 0.00 0.00 0.00 76 1011.1
20260507094003 62 37 1.0 3.0 0.00 0.00 0.00 77 1011.3
20260507093903 62 37 1.0 3.0 0.00 0.00 0.00 77 1011.3
20260507093803 62 37 1.0 3.0 0.00 0.00 0.00 76 1011.2
20260507093703 62 37 1.0 2.0 0.00 0.00 0.00 76 1011.2
20260507093603 62 37 1.0 2.0 0.00 0.00 0.00 76 1011.2
20260507093503 62 37 1.0 2.0 0.00 0.00 0.00 78 1011.2
20260507093403 61 37 1.0 2.0 0.00 0.00 0.00 78 1011.3
20260507093324 61 37 1.0 2.0 0.00 0.00 0.00 78 1011.4
20260507093203 60 37 1.0 2.0 0.00 0.00 0.00 79 1011.4
20260507093103 60 37 1.0 2.0 0.00 0.00 0.00 77 1011.5
20260507093024 61 37 1.0 2.0 0.00 0.00 0.00 76 1011.3
20260507092924 61 37 1.0 2.0 0.00 0.00 0.00 77 1011.4
20260507092803 61 37 1.0 2.0 0.00 0.00 0.00 78 1011.3
20260507092703 60 37 1.0 2.0 0.00 0.00 0.00 79 1011.3
20260507092603 60 37 1.0 2.0 0.00 0.00 0.00 80 1011.3
20260507092503 59 37 1.0 2.0 0.00 0.00 0.00 80 1011.3
20260507092424 59 37 1.0 2.0 0.00 0.00 0.00 80 1011.3
20260507092324 59 37 1.0 2.0 0.00 0.00 0.00 80 1011.4
20260507092224 59 37 1.0 2.0 0.00 0.00 0.00 81 1011.4
20260507092103 61 37 1.0 2.0 0.00 0.00 0.00 85 1011.3
20260507092003 61 37 0.0 2.0 0.00 0.00 0.00 89 1011.4
20260507091903 61 37 0.0 2.0 0.00 0.00 0.00 89 1011.4
20260507091803 61 37 0.0 2.0 0.00 0.00 0.00 91 1011.5
20260507091703 61 37 0.0 2.0 0.00 0.00 0.00 93 1011.4
20260507091603 60 37 1.0 2.0 0.00 0.00 0.00 95 1011.4
20260507091503 59 37 1.0 2.0 0.00 0.00 0.00 96 1011.4
20260507091424 59 37 1.0 2.0 0.00 0.00 0.00 97 1011.5
20260507091324 59 37 1.0 2.0 0.00 0.00 0.00 97 1011.5
20260507091203 59 37 0.0 2.0 0.00 0.00 0.00 98 1011.4
20260507091103 59 37 1.0 2.0 0.00 0.00 0.00 98 1011.4
20260507091003 59 37 1.0 2.0 0.00 0.00 0.00 98 1011.6
20260507090903 58 37 0.0 2.0 0.00 0.00 0.00 99 1011.5
20260507090803 58 37 0.0 2.0 0.00 0.00 0.00 99 1011.5
20260507090724 58 37 0.0 2.0 0.00 0.00 0.00 99 1011.5
20260507090603 57 37 1.0 2.0 0.00 0.00 0.00 99 1011.5
20260507090503 57 37 1.0 2.0 0.00 0.00 0.00 99 1011.5
20260507090403 57 37 1.0 2.0 0.00 0.00 0.00 99 1011.5
20260507090303 57 37 1.0 2.0 0.00 0.00 0.00 99 1011.5
20260507090203 57 37 1.0 2.0 0.00 0.00 0.00 99 1011.4
20260507090003 57 37 1.0 2.0 0.00 0.00 0.00 99 1011.6
20260507085903 57 37 1.0 2.0 0.00 0.00 0.00 99 1011.4
20260507085803 56 37 1.0 2.0 0.00 0.00 0.00 99 1011.6
20260507085703 54 37 1.0 2.0 0.00 0.00 0.00 99 1011.6
20260507085603 54 37 1.0 2.0 0.00 0.00 0.00 99 1011.5
20260507085503 56 37 1.0 2.0 0.00 0.00 0.00 99 1011.6
20260507085403 56 37 1.0 2.0 0.00 0.00 0.00 99 1011.5
20260507085306 56 37 0.0 2.0 0.00 0.00 0.00 99 1011.6
20260507085203 56 38 0.0 2.0 0.00 0.00 0.00 99 1011.7
20260507085124 56 38 0.0 2.0 0.00 0.00 0.00 99 1011.5
20260507085003 56 39 0.0 2.0 0.00 0.00 0.00 99 1011.6
20260507084903 56 39 0.0 2.0 0.00 0.00 0.00 99 1011.8
20260507084824 56 39 0.0 2.0 0.00 0.00 0.00 99 1011.8
20260507084703 55 40 0.0 2.0 0.00 0.00 0.00 99 1011.8
20260507084603 55 50 0.0 2.0 0.00 0.00 0.00 99 1011.9
20260507084503 55 51 1.0 2.0 0.00 0.00 0.00 99 1011.6
20260507084403 55 51 1.0 2.0 0.00 0.00 0.00 99 1011.6
20260507084303 55 56 1.0 2.0 0.00 0.00 0.00 99 1011.8
20260507084203 55 55 1.0 2.0 0.00 0.00 0.00 99 1011.9
20260507084103 54 56 1.0 2.0 0.00 0.00 0.00 99 1011.7
20260507084003 54 54 1.0 2.0 0.00 0.00 0.00 99 1011.8
20260507083903 54 53 1.0 2.0 0.00 0.00 0.00 99 1011.9
20260507083803 53 53 1.0 2.0 0.00 0.00 0.00 99 1011.6
20260507083703 53 54 1.0 2.0 0.00 0.00 0.00 99 1011.8
20260507083624 53 54 1.0 2.0 0.00 0.00 0.00 99 1011.8
20260507083503 53 51 1.0 2.0 0.00 0.00 0.00 99 1011.7
20260507083403 54 49 0.0 2.0 0.00 0.00 0.00 99 1011.8
20260507083303 54 47 0.0 1.0 0.00 0.00 0.00 99 1011.7
20260507083203 54 49 0.0 2.0 0.00 0.00 0.00 99 1011.6
20260507083103 54 47 0.0 2.0 0.00 0.00 0.00 99 1011.8
20260507083003 54 48 0.0 2.0 0.00 0.00 0.00 99 1011.7
20260507082903 54 48 0.0 2.0 0.00 0.00 0.00 99 1011.7
20260507082824 54 48 0.0 2.0 0.00 0.00 0.00 99 1011.7
20260507082703 54 48 0.0 2.0 0.00 0.00 0.00 99 1011.7
20260507082603 54 48 0.0 2.0 0.00 0.00 0.00 99 1011.8
20260507082503 54 48 0.0 2.0 0.00 0.00 0.00 99 1011.7
20260507082403 54 48 0.0 2.0 0.00 0.00 0.00 99 1011.7
20260507082306 54 48 0.0 2.0 0.00 0.00 0.00 99 1011.7
20260507082203 55 47 0.0 2.0 0.00 0.00 0.00 99 1011.7
20260507082103 55 45 0.0 2.0 0.00 0.00 0.00 99 1011.8
20260507082024 54 45 0.0 2.0 0.00 0.00 0.00 99 1011.8
20260507081924 55 45 0.0 2.0 0.00 0.00 0.00 99 1011.9
20260507081803 55 46 0.0 2.0 0.00 0.00 0.00 99 1012.0
20260507081703 54 44 0.0 1.0 0.00 0.00 0.00 99 1012.0
20260507081624 54 44 0.0 1.0 0.00 0.00 0.00 99 1012.0
20260507081503 52 42 0.0 1.0 0.00 0.00 0.00 99 1011.9
20260507081403 52 40 0.0 1.0 0.00 0.00 0.00 99 1012.0
20260507081303 52 40 0.0 1.0 0.00 0.00 0.00 99 1012.0
20260507081203 52 48 0.0 2.0 0.00 0.00 0.00 99 1012.0
20260507081103 52 48 0.0 2.0 0.00 0.00 0.00 99 1012.0
20260507081024 52 49 0.0 2.0 0.00 0.00 0.00 99 1012.0
20260507080903 51 50 0.0 2.0 0.00 0.00 0.00 99 1011.9
20260507080803 51 50 0.0 2.0 0.00 0.00 0.00 99 1012.0
20260507080703 51 50 0.0 2.0 0.00 0.00 0.00 99 1012.0
20260507080603 51 50 0.0 2.0 0.00 0.00 0.00 99 1012.0
20260507080524 51 50 0.0 2.0 0.00 0.00 0.00 99 1011.9
20260507080403 51 47 0.0 2.0 0.00 0.00 0.00 99 1012.0
20260507080303 51 48 0.0 2.0 0.00 0.00 0.00 99 1012.0
20260507080203 52 48 0.0 2.0 0.00 0.00 0.00 99 1012.1
20260507080103 52 38 0.0 1.0 0.00 0.00 0.00 99 1012.1
20260507080003 52 40 0.0 1.0 0.00 0.00 0.00 99 1012.1
20260507075924 52 40 0.0 1.0 0.00 0.00 0.00 99 1012.1
20260507075803 51 46 1.0 2.0 0.00 0.00 0.00 99 1012.1
20260507075703 51 49 1.0 2.0 0.00 0.00 0.00 99 1012.0
20260507075603 51 51 1.0 2.0 0.00 0.00 0.00 99 1011.9
20260507075503 51 53 1.0 2.0 0.00 0.00 0.00 99 1012.1
20260507075403 51 55 1.0 2.0 0.00 0.00 0.00 99 1012.2
20260507075324 51 55 1.0 2.0 0.00 0.00 0.00 99 1012.2
20260507075203 50 58 1.0 2.0 0.00 0.00 0.00 99 1011.8
20260507075103 50 56 1.0 2.0 0.00 0.00 0.00 99 1012.1
20260507075024 50 60 1.0 2.0 0.00 0.00 0.00 99 1012.0
20260507074903 50 62 1.0 2.0 0.00 0.00 0.00 99 1012.1
20260507074803 50 61 1.0 2.0 0.00 0.00 0.00 99 1012.2
20260507074703 50 62 1.0 2.0 0.00 0.00 0.00 99 1012.1
20260507074624 49 62 1.0 2.0 0.00 0.00 0.00 99 1012.1
20260507074503 49 60 1.0 2.0 0.00 0.00 0.00 99 1012.1
20260507074424 49 59 1.0 2.0 0.00 0.00 0.00 99 1012.1
20260507074303 49 59 1.0 2.0 0.00 0.00 0.00 99 1012.2
20260507074203 49 61 1.0 3.0 0.00 0.00 0.00 99 1012.2
20260507074124 49 62 1.0 3.0 0.00 0.00 0.00 99 1012.1
20260507074003 49 59 1.0 3.0 0.00 0.00 0.00 99 1012.2
20260507073903 49 57 1.0 3.0 0.00 0.00 0.00 99 1012.0
20260507073803 49 57 1.0 3.0 0.00 0.00 0.00 99 1012.1
20260507073724 49 57 1.0 3.0 0.00 0.00 0.00 99 1012.1
20260507073603 50 55 1.0 3.0 0.00 0.00 0.00 99 1012.0
20260507073524 50 55 1.0 3.0 0.00 0.00 0.00 99 1012.1
20260507073403 50 55 1.0 3.0 0.00 0.00 0.00 99 1012.2
20260507073303 50 55 1.0 3.0 0.00 0.00 0.00 99 1012.0
20260507073203 50 55 1.0 3.0 0.00 0.00 0.00 99 1012.0
20260507073103 50 54 1.0 3.0 0.00 0.00 0.00 99 1012.1
20260507073003 49 57 1.0 3.0 0.00 0.00 0.00 99 1012.2
20260507072903 49 56 2.0 3.0 0.00 0.00 0.00 99 1012.0
20260507072803 49 55 1.0 3.0 0.00 0.00 0.00 99 1012.0
20260507072703 49 55 1.0 3.0 0.00 0.00 0.00 99 1012.3
20260507072603 49 56 1.0 3.0 0.00 0.00 0.00 99 1012.1
20260507072503 49 56 1.0 3.0 0.00 0.00 0.00 99 1012.2
20260507072403 49 57 1.0 3.0 0.00 0.00 0.00 99 1012.2
20260507072306 49 62 2.0 3.0 0.00 0.00 0.00 99 1012.1
20260507072203 49 62 2.0 3.0 0.00 0.00 0.00 99 1012.0
20260507072103 49 61 2.0 3.0 0.00 0.00 0.00 99 1012.1
20260507072003 49 58 2.0 3.0 0.00 0.00 0.00 99 1012.2
20260507071903 49 58 2.0 3.0 0.00 0.00 0.00 99 1012.2
20260507071824 48 59 1.0 3.0 0.00 0.00 0.00 99 1012.2
20260507071703 48 60 1.0 3.0 0.00 0.00 0.00 99 1012.1
20260507071604 48 60 1.0 3.0 0.00 0.00 0.00 99 1012.1
20260507071503 48 60 1.0 3.0 0.00 0.00 0.00 99 1012.2
20260507071424 48 60 1.0 3.0 0.00 0.00 0.00 99 1012.3
20260507071303 48 61 1.0 3.0 0.00 0.00 0.00 99 1012.2
20260507071203 48 53 1.0 2.0 0.00 0.00 0.00 99 1012.4
20260507071103 48 52 1.0 2.0 0.00 0.00 0.00 99 1012.2
20260507071003 48 56 1.0 2.0 0.00 0.00 0.00 99 1012.1
20260507070903 48 57 1.0 2.0 0.00 0.00 0.00 99 1012.2
20260507070803 48 59 1.0 2.0 0.00 0.00 0.00 99 1012.3
20260507070703 48 60 1.0 2.0 0.00 0.00 0.00 99 1012.2
20260507070603 48 63 1.0 3.0 0.00 0.00 0.00 99 1012.2
20260507070503 48 63 1.0 3.0 0.00 0.00 0.00 99 1012.3
20260507070424 48 63 1.0 3.0 0.00 0.00 0.00 99 1012.3
20260507070303 48 68 2.0 3.0 0.00 0.00 0.00 99 1012.3
20260507070203 48 69 2.0 3.0 0.00 0.00 0.00 99 1012.3
20260507070103 48 70 2.0 3.0 0.00 0.00 0.00 99 1012.2
20260507070004 48 70 2.0 3.0 0.00 0.00 0.00 99 1012.2
20260507065903 48 67 2.0 3.0 0.00 0.00 0.00 99 1012.3
20260507065824 48 67 1.0 3.0 0.00 0.00 0.00 99 1012.1
20260507065724 48 67 1.0 3.0 0.00 0.00 0.00 99 1012.4
20260507065603 48 67 1.0 3.0 0.00 0.00 0.00 99 1012.4
20260507065503 48 65 1.0 3.0 0.00 0.00 0.00 99 1012.3
20260507065424 48 63 1.0 3.0 0.00 0.00 0.00 99 1012.3
20260507065305 48 61 1.0 3.0 0.00 0.00 0.00 99 1012.2
20260507065224 48 53 1.0 2.0 0.00 0.00 0.00 99 1012.2
20260507065124 48 52 1.0 2.0 0.00 0.00 0.00 99 1012.2
20260507065024 48 53 1.0 2.0 0.00 0.00 0.00 99 1012.2
20260507064924 48 53 1.0 2.0 0.00 0.00 0.00 99 1012.2
20260507064803 48 56 1.0 2.0 0.00 0.00 0.00 99 1012.0
20260507064703 48 56 1.0 2.0 0.00 0.00 0.00 99 1012.0
20260507064603 48 56 1.0 2.0 0.00 0.00 0.00 99 1012.0
20260507064503 48 56 1.0 2.0 0.00 0.00 0.00 99 1012.2
20260507064403 48 57 2.0 2.0 0.00 0.00 0.00 99 1012.2
20260507064303 48 57 2.0 2.0 0.00 0.00 0.00 99 1012.2
20260507064224 48 57 2.0 2.0 0.00 0.00 0.00 99 1012.4
20260507064103 48 58 1.0 2.0 0.00 0.00 0.00 99 1012.1
20260507064003 48 58 1.0 2.0 0.00 0.00 0.00 99 1012.2
20260507063903 48 58 1.0 2.0 0.00 0.00 0.00 99 1012.1
20260507063803 48 57 1.0 2.0 0.00 0.00 0.00 99 1012.2
20260507063703 48 54 1.0 2.0 0.00 0.00 0.00 99 1012.4
20260507063603 48 53 1.0 2.0 0.00 0.00 0.00 99 1012.2
20260507063503 48 53 1.0 2.0 0.00 0.00 0.00 99 1012.3
20260507063403 48 52 1.0 2.0 0.00 0.00 0.00 99 1012.2
20260507063303 48 54 1.0 2.0 0.00 0.00 0.00 99 1012.2
20260507063203 48 56 1.0 3.0 0.00 0.00 0.00 99 1012.3
20260507063103 47 56 1.0 3.0 0.00 0.00 0.00 99 1012.4
20260507063003 47 55 1.0 3.0 0.00 0.00 0.00 99 1012.2
20260507062903 47 56 1.0 3.0 0.00 0.00 0.00 99 1012.4
20260507062803 47 56 1.0 3.0 0.00 0.00 0.00 99 1012.3
20260507062703 47 56 1.0 3.0 0.00 0.00 0.00 99 1012.3
20260507062604 47 56 1.0 3.0 0.00 0.00 0.00 99 1012.3
20260507062503 47 55 1.0 3.0 0.00 0.00 0.00 99 1012.2
20260507062403 47 55 1.0 3.0 0.00 0.00 0.00 99 1012.4
20260507062306 47 54 1.0 3.0 0.00 0.00 0.00 99 1012.4
20260507062203 47 51 1.0 3.0 0.00 0.00 0.00 99 1012.6
20260507062124 47 48 1.0 2.0 0.00 0.00 0.00 99 1012.4
20260507062003 47 48 1.0 2.0 0.00 0.00 0.00 99 1012.5
20260507061903 47 49 1.0 2.0 0.00 0.00 0.00 99 1012.3
20260507061824 47 46 1.0 2.0 0.00 0.00 0.00 99 1012.3
20260507061703 47 46 0.0 1.0 0.00 0.00 0.00 99 1012.2
20260507061603 47 46 0.0 1.0 0.00 0.00 0.00 99 1012.1
20260507061525 47 46 0.0 1.0 0.00 0.00 0.00 99 1012.1
20260507061404 47 45 0.0 1.0 0.00 0.00 0.00 99 1012.4
20260507061303 47 46 0.0 1.0 0.00 0.00 0.00 99 1012.3
20260507061203 47 48 0.0 2.0 0.00 0.00 0.00 99 1012.2
20260507061124 47 48 0.0 2.0 0.00 0.00 0.00 99 1012.2
20260507061003 47 48 0.0 2.0 0.00 0.00 0.00 99 1012.3
20260507060924 47 49 0.0 2.0 0.00 0.00 0.00 99 1012.3
20260507060803 47 48 1.0 2.0 0.00 0.00 0.00 99 1012.2
20260507060703 47 49 1.0 2.0 0.00 0.00 0.00 99 1012.2
20260507060603 47 49 1.0 2.0 0.00 0.00 0.00 99 1012.2
20260507060503 47 49 1.0 2.0 0.00 0.00 0.00 99 1012.2
20260507060403 47 50 1.0 2.0 0.00 0.00 0.00 99 1012.5
20260507060303 47 50 1.0 2.0 0.00 0.00 0.00 99 1012.4
20260507060203 47 50 1.0 2.0 0.00 0.00 0.00 99 1012.4
20260507060003 46 48 1.0 2.0 0.00 0.00 0.00 99 1012.4
20260507055903 46 48 1.0 2.0 0.00 0.00 0.00 99 1012.5
20260507055803 46 48 1.0 2.0 0.00 0.00 0.00 99 1012.5
20260507055703 46 48 1.0 2.0 0.00 0.00 0.00 99 1012.4
20260507055603 46 48 1.0 2.0 0.00 0.00 0.00 99 1012.3
20260507055503 46 48 1.0 2.0 0.00 0.00 0.00 99 1012.3
20260507055403 46 48 1.0 2.0 0.00 0.00 0.00 99 1012.3
20260507055324 46 49 1.0 2.0 0.00 0.00 0.00 99 1012.2
20260507055203 46 49 1.0 2.0 0.00 0.00 0.00 99 1012.4
20260507055124 46 49 1.0 2.0 0.00 0.00 0.00 99 1012.5
20260507055003 46 51 1.0 2.0 0.00 0.00 0.00 99 1012.3
20260507054903 46 53 1.0 2.0 0.00 0.00 0.00 99 1012.4
20260507054803 46 53 1.0 2.0 0.00 0.00 0.00 99 1012.4
20260507054703 46 54 1.0 2.0 0.00 0.00 0.00 99 1012.2
20260507054603 46 54 1.0 2.0 0.00 0.00 0.00 99 1012.5
20260507054503 46 54 1.0 2.0 0.00 0.00 0.00 99 1012.5
20260507054424 46 54 1.0 2.0 0.00 0.00 0.00 99 1012.5
20260507054303 46 54 1.0 2.0 0.00 0.00 0.00 99 1012.3
20260507054203 46 54 0.0 2.0 0.00 0.00 0.00 99 1012.2
20260507054103 46 54 0.0 2.0 0.00 0.00 0.00 99 1012.2
20260507054003 46 54 0.0 2.0 0.00 0.00 0.00 99 1012.4
20260507053903 46 52 0.0 2.0 0.00 0.00 0.00 99 1012.3
20260507053803 46 49 0.0 1.0 0.00 0.00 0.00 99 1012.4
20260507053704 46 46 0.0 1.0 0.00 0.00 0.00 99 1012.3
20260507053603 46 42 0.0 1.0 0.00 0.00 0.00 99 1012.2
20260507053503 46 0 0.0 0.0 0.00 0.00 0.00 99 1012.2
20260507053424 46 0 0.0 0.0 0.00 0.00 0.00 99 1012.4
20260507053303 46 0 0.0 0.0 0.00 0.00 0.00 99 1012.4
20260507053204 46 0 0.0 0.0 0.00 0.00 0.00 99 1012.3
20260507053103 46 0 0.0 0.0 0.00 0.00 0.00 99 1012.4
20260507053003 46 0 0.0 0.0 0.00 0.00 0.00 99 1012.3
20260507052903 46 0 0.0 0.0 0.00 0.00 0.00 99 1012.2
20260507052803 46 0 0.0 0.0 0.00 0.00 0.00 99 1012.3
20260507052703 46 0 0.0 0.0 0.00 0.00 0.00 99 1012.2
20260507052603 46 0 0.0 0.0 0.00 0.00 0.00 99 1012.2
20260507052503 46 0 0.0 0.0 0.00 0.00 0.00 99 1012.2
20260507052403 46 0 0.0 0.0 0.00 0.00 0.00 99 1012.2
20260507052306 46 0 0.0 0.0 0.00 0.00 0.00 99 1012.2
20260507052224 46 0 0.0 0.0 0.00 0.00 0.00 99 1012.2
20260507052103 46 0 0.0 0.0 0.00 0.00 0.00 99 1012.4
20260507052003 46 0 0.0 0.0 0.00 0.00 0.00 99 1012.4
20260507051904 46 0 0.0 0.0 0.00 0.00 0.00 99 1012.2
20260507051824 46 0 0.0 0.0 0.00 0.00 0.00 99 1012.3
20260507051724 46 0 0.0 0.0 0.00 0.00 0.00 99 1012.2
20260507051624 46 0 0.0 0.0 0.00 0.00 0.00 99 1012.3
20260507051503 46 0 0.0 0.0 0.00 0.00 0.00 99 1012.5
20260507051403 46 0 0.0 0.0 0.00 0.00 0.00 99 1012.2
20260507051324 46 0 0.0 0.0 0.00 0.00 0.00 99 1012.3
20260507051224 46 0 0.0 0.0 0.00 0.00 0.00 99 1012.3
20260507051103 46 42 0.0 1.0 0.00 0.00 0.00 99 1012.3
20260507051024 46 42 0.0 1.0 0.00 0.00 0.00 99 1012.3
20260507050903 46 42 0.0 1.0 0.00 0.00 0.00 99 1012.4
20260507050825 46 42 0.0 1.0 0.00 0.00 0.00 99 1012.4
20260507050703 46 42 0.0 1.0 0.00 0.00 0.00 99 1012.4
20260507050603 46 42 0.0 1.0 0.00 0.00 0.00 99 1012.4
20260507050503 46 42 0.0 1.0 0.00 0.00 0.00 99 1012.3
20260507050424 46 42 0.0 1.0 0.00 0.00 0.00 99 1012.3
20260507050303 46 42 0.0 1.0 0.00 0.00 0.00 99 1012.5
20260507050203 46 42 0.0 1.0 0.00 0.00 0.00 99 1012.4
20260507050103 46 42 0.0 1.0 0.00 0.00 0.00 99 1012.5
20260507050003 46 42 0.0 1.0 0.00 0.00 0.00 99 1012.4
20260507045903 46 42 0.0 1.0 0.00 0.00 0.00 99 1012.3
20260507045803 46 42 0.0 1.0 0.00 0.00 0.00 99 1012.4
20260507045703 46 42 0.0 1.0 0.00 0.00 0.00 99 1012.5
20260507045603 46 42 0.0 1.0 0.00 0.00 0.00 99 1012.3
20260507045524 46 42 0.0 1.0 0.00 0.00 0.00 99 1012.3
20260507045424 46 42 0.0 1.0 0.00 0.00 0.00 99 1012.3
20260507045324 46 42 0.0 1.0 0.00 0.00 0.00 99 1012.4
20260507045203 46 42 0.0 1.0 0.00 0.00 0.00 99 1012.4
20260507045103 46 43 0.0 1.0 0.00 0.00 0.00 99 1012.4
20260507045003 46 43 0.0 1.0 0.00 0.00 0.00 99 1012.5
20260507044903 46 43 0.0 1.0 0.00 0.00 0.00 99 1012.7
20260507044803 46 43 0.0 1.0 0.00 0.00 0.00 99 1012.7
20260507044703 46 42 0.0 1.0 0.00 0.00 0.00 99 1012.6
20260507044603 46 42 0.0 1.0 0.00 0.00 0.00 99 1012.5
20260507044503 46 42 0.0 1.0 0.00 0.00 0.00 99 1012.4
20260507044424 46 0 0.0 0.0 0.00 0.00 0.00 99 1012.4
20260507044303 46 0 0.0 0.0 0.00 0.00 0.00 99 1012.4
20260507044203 46 0 0.0 0.0 0.00 0.00 0.00 99 1012.6
20260507044103 46 0 0.0 0.0 0.00 0.00 0.00 99 1012.6
20260507044003 46 0 0.0 0.0 0.00 0.00 0.00 99 1012.4
20260507043903 46 0 0.0 0.0 0.00 0.00 0.00 99 1012.5
20260507043803 46 0 0.0 0.0 0.00 0.00 0.00 99 1012.5
20260507043703 46 0 0.0 0.0 0.00 0.00 0.00 99 1012.5
20260507043624 46 0 0.0 0.0 0.00 0.00 0.00 99 1012.6
20260507043524 46 0 0.0 0.0 0.00 0.00 0.00 99 1012.6
20260507043403 46 0 0.0 0.0 0.00 0.00 0.00 99 1012.6
20260507043324 46 0 0.0 0.0 0.00 0.00 0.00 99 1012.6
20260507043203 46 0 0.0 0.0 0.00 0.00 0.00 99 1012.6
20260507043103 46 0 0.0 0.0 0.00 0.00 0.00 99 1012.6
20260507043003 46 0 0.0 0.0 0.00 0.00 0.00 99 1012.7
20260507042903 46 0 0.0 0.0 0.00 0.00 0.00 99 1012.5
20260507042803 46 0 0.0 0.0 0.00 0.00 0.00 99 1012.5
20260507042703 46 0 0.0 0.0 0.00 0.00 0.00 99 1012.8
20260507042603 46 0 0.0 0.0 0.00 0.00 0.00 99 1012.8
20260507042503 46 0 0.0 0.0 0.00 0.00 0.00 99 1012.5
20260507042403 46 0 0.0 0.0 0.00 0.00 0.00 99 1012.4
20260507042306 46 0 0.0 0.0 0.00 0.00 0.00 99 1012.6
20260507042203 46 0 0.0 0.0 0.00 0.00 0.00 99 1012.7
20260507042103 46 0 0.0 0.0 0.00 0.00 0.00 99 1012.6
20260507042003 46 0 0.0 0.0 0.00 0.00 0.00 99 1012.7
20260507041903 46 0 0.0 0.0 0.00 0.00 0.00 99 1012.6
20260507041824 46 0 0.0 0.0 0.00 0.00 0.00 99 1012.6
20260507041703 46 0 0.0 0.0 0.00 0.00 0.00 99 1012.8
20260507041603 46 0 0.0 0.0 0.00 0.00 0.00 99 1012.8
20260507041503 46 0 0.0 0.0 0.00 0.00 0.00 99 1012.6
20260507041424 46 0 0.0 0.0 0.00 0.00 0.00 99 1012.8
20260507041303 46 0 0.0 0.0 0.00 0.00 0.00 99 1013.0
20260507041203 46 0 0.0 0.0 0.00 0.00 0.00 99 1012.9
20260507041124 46 0 0.0 0.0 0.00 0.00 0.00 99 1012.7
20260507041024 46 43 0.0 1.0 0.00 0.00 0.00 99 1012.8
20260507040903 46 51 0.0 2.0 0.00 0.00 0.00 99 1012.8
20260507040803 46 49 0.0 2.0 0.00 0.00 0.00 99 1012.9
20260507040703 46 56 0.0 2.0 0.00 0.00 0.00 99 1012.9
20260507040603 46 53 0.0 2.0 0.00 0.00 0.00 99 1012.9
20260507040503 46 53 0.0 2.0 0.00 0.00 0.00 99 1012.7
20260507040403 46 52 1.0 2.0 0.00 0.00 0.00 99 1012.7
20260507040303 46 52 1.0 2.0 0.00 0.00 0.00 99 1012.7
20260507040224 46 52 1.0 2.0 0.00 0.00 0.00 99 1012.7
20260507040103 46 51 1.0 2.0 0.00 0.00 0.00 99 1012.9
20260507040003 46 52 1.0 2.0 0.00 0.00 0.00 99 1012.9
20260507035924 46 52 1.0 2.0 0.00 0.00 0.00 99 1012.9
20260507035803 46 50 1.0 2.0 0.00 0.00 0.00 99 1012.7
20260507035724 46 51 1.0 2.0 0.00 0.00 0.00 99 1012.8
20260507035603 46 45 1.0 2.0 0.00 0.00 0.00 99 1012.8
20260507035524 46 46 1.0 1.0 0.00 0.00 0.00 99 1013.0
20260507035403 46 46 1.0 1.0 0.00 0.00 0.00 99 1012.8
20260507035306 46 45 0.0 1.0 0.00 0.00 0.00 99 1012.7
20260507035203 46 44 0.0 1.0 0.00 0.00 0.00 99 1012.9
20260507035124 46 44 0.0 1.0 0.00 0.00 0.00 99 1012.8
20260507035003 46 44 0.0 1.0 0.00 0.00 0.00 99 1012.6
20260507034903 46 44 0.0 1.0 0.00 0.00 0.00 99 1012.8
20260507034803 46 45 0.0 1.0 0.00 0.00 0.00 99 1012.7
20260507034703 46 45 0.0 1.0 0.00 0.00 0.00 99 1012.8
20260507034603 46 46 0.0 1.0 0.00 0.00 0.00 99 1012.8
20260507034503 46 46 0.0 1.0 0.00 0.00 0.00 99 1012.7
20260507034404 46 46 0.0 1.0 0.00 0.00 0.00 99 1012.8
20260507034303 46 46 0.0 1.0 0.00 0.00 0.00 99 1012.8
20260507034203 46 46 0.0 1.0 0.00 0.00 0.00 99 1013.1
20260507034124 46 45 0.0 1.0 0.00 0.00 0.00 99 1013.0
20260507034024 46 46 1.0 1.0 0.00 0.00 0.00 99 1012.8
20260507033903 46 46 1.0 1.0 0.00 0.00 0.00 99 1013.0
20260507033803 46 46 1.0 1.0 0.00 0.00 0.00 99 1012.9
20260507033703 46 46 1.0 2.0 0.00 0.00 0.00 99 1013.0
20260507033603 46 46 1.0 2.0 0.00 0.00 0.00 99 1012.7
20260507033503 46 46 1.0 2.0 0.00 0.00 0.00 99 1012.9
20260507033403 46 46 1.0 2.0 0.00 0.00 0.00 99 1013.0
20260507033303 46 46 1.0 2.0 0.00 0.00 0.00 99 1012.9
20260507033203 46 46 1.0 2.0 0.00 0.00 0.00 99 1013.0
20260507033103 46 46 1.0 2.0 0.00 0.00 0.00 99 1013.2
20260507033003 46 46 1.0 2.0 0.00 0.00 0.00 99 1013.1
20260507032903 46 46 1.0 2.0 0.00 0.00 0.00 99 1012.9
20260507032803 46 46 1.0 2.0 0.00 0.00 0.00 99 1012.9
20260507032703 46 46 1.0 2.0 0.00 0.00 0.00 99 1012.9
20260507032603 46 45 1.0 2.0 0.00 0.00 0.00 99 1013.0
20260507032524 46 45 1.0 2.0 0.00 0.00 0.00 99 1012.7
20260507032424 46 45 1.0 2.0 0.00 0.00 0.00 99 1012.9
20260507032305 46 46 1.0 2.0 0.00 0.00 0.00 99 1012.9
20260507032224 46 45 1.0 1.0 0.00 0.00 0.00 99 1012.8
20260507032103 46 45 1.0 1.0 0.00 0.00 0.00 99 1012.9
20260507032003 46 44 1.0 1.0 0.00 0.00 0.00 99 1012.8
20260507031903 46 44 1.0 1.0 0.00 0.00 0.00 99 1012.8
20260507031803 46 44 1.0 1.0 0.00 0.00 0.00 99 1012.7
20260507031703 46 44 1.0 1.0 0.00 0.00 0.00 99 1012.9
20260507031624 46 44 1.0 1.0 0.00 0.00 0.00 99 1012.8
20260507031524 46 45 1.0 1.0 0.00 0.00 0.00 99 1012.8
20260507031403 46 45 1.0 1.0 0.00 0.00 0.00 99 1012.8
20260507031303 46 45 1.0 1.0 0.00 0.00 0.00 99 1012.7
20260507031203 46 45 1.0 1.0 0.00 0.00 0.00 99 1013.0
20260507031103 46 45 1.0 1.0 0.00 0.00 0.00 99 1012.8
20260507031004 46 45 1.0 1.0 0.00 0.00 0.00 99 1012.8
20260507030924 46 45 1.0 1.0 0.00 0.00 0.00 99 1012.8
20260507030803 46 45 1.0 1.0 0.00 0.00 0.00 99 1012.8
20260507030703 46 45 1.0 1.0 0.00 0.00 0.00 99 1013.0
20260507030603 46 45 1.0 1.0 0.00 0.00 0.00 99 1013.0
20260507030503 46 45 1.0 1.0 0.00 0.00 0.00 99 1012.7
20260507030403 46 45 1.0 1.0 0.00 0.00 0.00 99 1012.9
20260507030324 46 45 1.0 1.0 0.00 0.00 0.00 99 1012.7
20260507030224 46 44 0.0 1.0 0.00 0.00 0.00 99 1012.6
20260507030125 46 44 0.0 1.0 0.00 0.00 0.00 99 1012.8
20260507030003 46 44 0.0 1.0 0.00 0.00 0.00 99 1012.8
20260507025924 46 45 0.0 1.0 0.00 0.00 0.00 99 1012.9
20260507025803 46 45 0.0 1.0 0.00 0.00 0.00 99 1012.8
20260507025703 46 46 0.0 1.0 0.00 0.00 0.00 99 1012.8
20260507025624 46 46 0.0 1.0 0.00 0.00 0.00 99 1012.8
20260507025503 46 0 0.0 0.0 0.00 0.00 0.00 99 1012.9
20260507025404 46 0 0.0 0.0 0.00 0.00 0.00 99 1012.7
20260507025306 46 0 0.0 0.0 0.00 0.00 0.00 99 1013.0
20260507025203 46 42 0.0 1.0 0.00 0.00 0.00 99 1012.9
20260507025103 46 42 0.0 1.0 0.00 0.00 0.00 99 1012.8
20260507025004 46 42 0.0 1.0 0.00 0.00 0.00 99 1013.0
20260507024924 46 42 0.0 1.0 0.00 0.00 0.00 99 1013.0
20260507024803 46 42 0.0 1.0 0.00 0.00 0.00 99 1012.8
20260507024703 46 42 0.0 1.0 0.00 0.00 0.00 99 1012.8
20260507024603 46 43 0.0 1.0 0.00 0.00 0.00 99 1012.8
20260507024503 46 42 0.0 1.0 0.00 0.00 0.00 99 1012.8
20260507024403 46 42 0.0 1.0 0.00 0.00 0.00 99 1012.9
20260507024303 46 42 0.0 1.0 0.00 0.00 0.00 99 1012.8
20260507024203 46 43 0.0 1.0 0.00 0.00 0.00 99 1012.9
20260507024103 46 44 0.0 2.0 0.00 0.00 0.00 99 1012.8
20260507024003 46 44 0.0 2.0 0.00 0.00 0.00 99 1012.9
20260507023903 46 45 1.0 2.0 0.00 0.00 0.00 99 1012.8
20260507023803 46 45 1.0 2.0 0.00 0.00 0.00 99 1013.0
20260507023724 46 45 1.0 2.0 0.00 0.00 0.00 99 1013.0
20260507023603 46 45 1.0 2.0 0.00 0.00 0.00 99 1013.0
20260507023503 46 45 1.0 2.0 0.00 0.00 0.00 99 1013.0
20260507023403 46 45 1.0 2.0 0.00 0.00 0.00 99 1012.9
20260507023303 46 45 1.0 2.0 0.00 0.00 0.00 99 1013.2
20260507023203 46 45 1.0 2.0 0.00 0.00 0.00 99 1013.2
20260507023103 46 45 0.0 2.0 0.00 0.00 0.00 99 1013.0
20260507023003 46 45 0.0 1.0 0.00 0.00 0.00 99 1013.0
20260507022904 46 45 0.0 1.0 0.00 0.00 0.00 99 1013.1
20260507022803 46 45 0.0 1.0 0.00 0.01 0.00 99 1013.1
20260507022724 46 45 0.0 1.0 0.00 0.01 0.00 99 1013.0
20260507022603 46 45 0.0 1.0 0.00 0.01 0.00 99 1013.0
20260507022503 46 45 0.0 1.0 0.00 0.01 0.00 99 1013.0
20260507022403 46 46 0.0 1.0 0.00 0.01 0.00 99 1013.0
20260507022306 46 46 0.0 1.0 0.00 0.01 0.00 99 1012.9
20260507022203 46 46 0.0 1.0 0.00 0.01 0.00 99 1012.9
20260507022104 46 48 0.0 1.0 0.00 0.01 0.00 99 1012.9
20260507022003 46 0 0.0 0.0 0.00 0.02 0.00 99 1013.1
20260507021903 46 0 0.0 0.0 0.00 0.02 0.00 99 1013.2
20260507021824 46 0 0.0 0.0 0.00 0.02 0.00 99 1013.2
20260507021724 46 0 0.0 0.0 0.00 0.02 0.00 99 1012.9
20260507021603 46 0 0.0 0.0 0.00 0.02 0.00 99 1012.9
20260507021503 46 0 0.0 0.0 0.00 0.02 0.00 99 1012.9
20260507021404 46 0 0.0 0.0 0.00 0.03 0.00 99 1013.1
20260507021303 46 0 0.0 0.0 0.00 0.03 0.00 99 1013.0
20260507021203 46 0 0.0 0.0 0.00 0.03 0.00 99 1013.0
20260507021103 46 0 0.0 0.0 0.00 0.03 0.00 99 1013.0
20260507021003 46 0 0.0 0.0 0.00 0.03 0.00 99 1013.1
20260507020903 46 0 0.0 0.0 0.00 0.03 0.00 99 1012.9
20260507020803 46 0 0.0 0.0 0.00 0.03 0.00 99 1013.1
20260507020703 46 0 0.0 0.0 0.00 0.03 0.00 98 1013.0
20260507020603 46 0 0.0 0.0 0.00 0.03 0.00 99 1013.0
20260507020503 46 0 0.0 0.0 0.00 0.03 0.00 99 1013.1
20260507020424 46 0 0.0 0.0 0.00 0.04 0.00 99 1013.1
20260507020303 46 0 0.0 0.0 0.00 0.04 0.00 99 1013.0
20260507020203 46 0 0.0 0.0 0.00 0.04 0.00 98 1013.1
20260507020024 46 50 0.0 2.0 0.00 0.04 0.00 98 1013.0
20260507015903 46 50 0.0 2.0 0.00 0.04 0.00 98 1013.1
20260507015825 46 50 0.0 2.0 0.00 0.04 0.00 98 1013.1
20260507015703 47 48 0.0 2.0 0.00 0.04 0.00 98 1013.1
20260507015603 47 47 0.0 2.0 0.00 0.05 0.00 98 1013.1
20260507015504 47 47 0.0 2.0 0.00 0.05 0.00 98 1013.1
20260507015403 47 47 0.0 2.0 0.00 0.06 0.00 98 1013.2
20260507015324 47 47 1.0 2.0 0.00 0.06 0.00 98 1013.3
20260507015203 47 47 1.0 2.0 0.00 0.06 0.00 98 1013.3
20260507015103 47 47 1.0 2.0 0.00 0.06 0.00 98 1013.2
20260507015003 47 46 1.0 1.0 0.00 0.07 0.00 98 1013.3
20260507014903 47 45 0.0 1.0 0.00 0.07 0.00 98 1013.3
20260507014803 47 45 0.0 1.0 0.00 0.07 0.00 98 1013.2
20260507014703 47 46 0.0 1.0 0.00 0.07 0.00 98 1013.4
20260507014603 47 45 0.0 1.0 0.00 0.07 0.00 98 1013.2
20260507014503 47 46 0.0 1.0 0.00 0.07 0.00 98 1013.3
20260507014424 47 46 0.0 1.0 0.00 0.07 0.00 98 1013.3
20260507014324 47 45 0.0 1.0 0.00 0.07 0.00 98 1013.3
20260507014203 47 47 0.0 2.0 0.00 0.07 0.00 98 1013.1
20260507014103 47 47 1.0 2.0 0.00 0.07 0.00 98 1013.4
20260507014003 47 51 1.0 2.0 0.00 0.07 0.00 98 1013.5
20260507013903 47 52 1.0 2.0 0.00 0.07 0.00 98 1013.4
20260507013824 47 51 1.0 2.0 0.00 0.07 0.00 98 1013.4
20260507013703 47 51 1.0 2.0 0.00 0.07 0.00 98 1013.3
20260507013603 47 52 1.0 2.0 0.00 0.07 0.00 98 1013.3
20260507013503 47 52 1.0 2.0 0.00 0.07 0.00 98 1013.3
20260507013403 47 52 1.0 2.0 0.00 0.07 0.00 98 1013.2